Observation data for Vigo Park on 05/25/2019      Previous  Date  Next       Current Mesonet Observations  Soil Data  Daily Summary Page  Observations in Plain Language
KVP1 250500Z 18008KT 18/12 A2998 RMK A01 T01800120  RH  068%=      5-min Rain = 0
KVP1 250501Z 18009KT 18/12 A2998 RMK A01 T01790121  RH  068%=      5-min Rain = 0
KVP1 250502Z 18009KT 18/12 A2998 RMK A01 T01790121  RH  069%=      5-min Rain = 0
KVP1 250503Z 18009KT 18/12 A2998 RMK A01 T01790122  RH  069%=      5-min Rain = 0
KVP1 250504Z 18009KT 18/12 A2998 RMK A01 T01790123  RH  070%=      5-min Rain = 0
KVP1 250505Z 18009KT 18/12 A2998 RMK A01 T01780124  RH  070%=      5-min Rain = 0
KVP1 250506Z 18009KT 18/13 A2998 RMK A01 T01780126  RH  072%=      5-min Rain = 0
KVP1 250507Z 18010KT 18/13 A2998 RMK A01 T01770128  RH  073%=      5-min Rain = 0
KVP1 250508Z 17010KT 18/13 A2998 RMK A01 T01770131  RH  074%=      5-min Rain = 0
KVP1 250509Z 17011KT 18/13 A2998 RMK A01 T01770133  RH  075%=      5-min Rain = 0
KVP1 250510Z 17010KT 18/14 A2998 RMK A01 T01780137  RH  077%=      5-min Rain = 0
KVP1 250511Z 17009KT 18/14 A2998 RMK A01 T01770139  RH  078%=      5-min Rain = 0
KVP1 250512Z 17009KT 18/14 A2998 RMK A01 T01780141  RH  079%=      5-min Rain = 0
KVP1 250513Z 17010KT 18/14 A2998 RMK A01 T01770144  RH  081%=      5-min Rain = 0
KVP1 250514Z 17010KT 18/15 A2998 RMK A01 T01780146  RH  082%=      5-min Rain = 0
KVP1 250515Z 17009KT 18/15 A2998 RMK A01 T01790149  RH  083%=      5-min Rain = 0
KVP1 250516Z 17010KT 18/15 A2998 RMK A01 T01800150  RH  083%=      5-min Rain = 0
KVP1 250517Z 17011KT 18/15 A2998 RMK A01 T01800152  RH  084%=      5-min Rain = 0
KVP1 250518Z 17012KT 18/16 A2998 RMK A01 T01820155  RH  084%=      5-min Rain = 0
KVP1 250519Z 17014KT 18/16 A2998 RMK A01 T01830156  RH  084%=      5-min Rain = 0
KVP1 250520Z 17012KT 18/16 A2998 RMK A01 T01840158  RH  085%=      5-min Rain = 0
KVP1 250521Z 18012KT 19/16 A2998 RMK A01 T01850158  RH  085%=      5-min Rain = 0
KVP1 250522Z 18011KT 19/16 A2998 RMK A01 T01850159  RH  085%=      5-min Rain = 0
KVP1 250523Z 18011KT 19/16 A2998 RMK A01 T01850159  RH  085%=      5-min Rain = 0
KVP1 250524Z 18012KT 18/16 A2998 RMK A01 T01840160  RH  086%=      5-min Rain = 0
KVP1 250525Z 18012KT 18/16 A2998 RMK A01 T01840160  RH  086%=      5-min Rain = 0
KVP1 250526Z 18010KT 18/16 A2998 RMK A01 T01840160  RH  086%=      5-min Rain = 0
KVP1 250527Z 18011KT 18/16 A2998 RMK A01 T01840160  RH  086%=      5-min Rain = 0
KVP1 250528Z 18011KT 18/16 A2998 RMK A01 T01830161  RH  087%=      5-min Rain = 0
KVP1 250529Z 17011KT 18/16 A2998 RMK A01 T01830161  RH  087%=      5-min Rain = 0
KVP1 250530Z 18011KT 18/16 A2998 RMK A01 T01840162  RH  087%=      5-min Rain = 0
KVP1 250531Z 18011KT 18/16 A2998 RMK A01 T01840162  RH  087%=      5-min Rain = 0
KVP1 250532Z 18012KT 18/16 A2998 RMK A01 T01840163  RH  087%=      5-min Rain = 0
KVP1 250533Z 18012KT 19/16 A2998 RMK A01 T01850164  RH  088%=      5-min Rain = 0
KVP1 250534Z 17011KT 19/17 A2998 RMK A01 T01860165  RH  088%=      5-min Rain = 0
KVP1 250535Z 17011KT 19/17 A2998 RMK A01 T01860165  RH  088%=      5-min Rain = 0
KVP1 250536Z 17011KT 19/17 A2998 RMK A01 T01860166  RH  088%=      5-min Rain = 0
KVP1 250537Z 17012KT 19/17 A2998 RMK A01 T01860166  RH  088%=      5-min Rain = 0
KVP1 250538Z 17012KT 19/17 A2998 RMK A01 T01860167  RH  089%=      5-min Rain = 0
KVP1 250539Z 17013KT 19/17 A2998 RMK A01 T01870168  RH  089%=      5-min Rain = 0
KVP1 250540Z 17015KT 19/17 A2998 RMK A01 T01880169  RH  089%=      5-min Rain = 0
KVP1 250541Z 17013KT 19/17 A2998 RMK A01 T01890170  RH  089%=      5-min Rain = 0
KVP1 250542Z 16013KT 19/17 A2998 RMK A01 T01900171  RH  088%=      5-min Rain = 0
KVP1 250543Z 17014KT 19/17 A2998 RMK A01 T01900171  RH  088%=      5-min Rain = 0
KVP1 250544Z 16013KT 19/17 A2998 RMK A01 T01900171  RH  089%=      5-min Rain = 0
KVP1 250545Z 16012KT 19/17 A2998 RMK A01 T01900171  RH  089%=      5-min Rain = 0
KVP1 250546Z 16015KT 19/17 A2998 RMK A01 T01900172  RH  089%=      5-min Rain = 0
KVP1 250547Z 16013KT 19/17 A2998 RMK A01 T01910173  RH  089%=      5-min Rain = 0
KVP1 250548Z 16014KT 19/17 A2998 RMK A01 T01910172  RH  089%=      5-min Rain = 0
KVP1 250549Z 16014KT 19/17 A2998 RMK A01 T01910172  RH  089%=      5-min Rain = 0
KVP1 250550Z 16013KT 19/17 A2998 RMK A01 T01910173  RH  089%=      5-min Rain = 0
KVP1 250551Z 16012KT 19/17 A2998 RMK A01 T01910173  RH  089%=      5-min Rain = 0
KVP1 250552Z 16013KT 19/17 A2998 RMK A01 T01910173  RH  089%=      5-min Rain = 0
KVP1 250553Z 16013KT 19/17 A2998 RMK A01 T01910173  RH  090%=      5-min Rain = 0
KVP1 250554Z 16012KT 19/17 A2998 RMK A01 T01910174  RH  090%=      5-min Rain = 0
KVP1 250555Z 15013KT 19/17 A2998 RMK A01 T01910174  RH  090%=      5-min Rain = 0
KVP1 250556Z 16013KT 19/17 A2998 RMK A01 T01910174  RH  090%=      5-min Rain = 0
KVP1 250557Z 15012KT 19/17 A2998 RMK A01 T01910174  RH  090%=      5-min Rain = 0
KVP1 250558Z 16013KT 19/17 A2998 RMK A01 T01900174  RH  090%=      5-min Rain = 0
KVP1 250559Z 16011KT 19/17 A2998 RMK A01 T01900174  RH  091%=      5-min Rain = 0
KVP1 250600Z 15012G17KT 19/17 A2998 RMK A01 T01890174  RH  091%=      5-min Rain = 0
KVP1 250601Z 15013KT 19/17 A2998 RMK A01 T01890174  RH  091%=      5-min Rain = 0
KVP1 250602Z 15014KT 19/17 A2998 RMK A01 T01890174  RH  091%=      5-min Rain = 0
KVP1 250603Z 16012KT 19/17 A2998 RMK A01 T01890174  RH  091%=      5-min Rain = 0
KVP1 250604Z 15013KT 19/17 A2998 RMK A01 T01890174  RH  091%=      5-min Rain = 0
KVP1 250605Z 15015KT 19/17 A2998 RMK A01 T01890174  RH  091%=      5-min Rain = 0
KVP1 250606Z 15013KT 19/17 A2998 RMK A01 T01890174  RH  091%=      5-min Rain = 0
KVP1 250607Z 15014KT 19/17 A2998 RMK A01 T01890174  RH  091%=      5-min Rain = 0
KVP1 250608Z 15015KT 19/18 A2998 RMK A01 T01890175  RH  091%=      5-min Rain = 0
KVP1 250609Z 15015KT 19/18 A2998 RMK A01 T01890175  RH  091%=      5-min Rain = 0
KVP1 250610Z 15016KT 19/18 A2998 RMK A01 T01900175  RH  091%=      5-min Rain = 0
KVP1 250611Z 15013KT 19/18 A2998 RMK A01 T01910175  RH  091%=      5-min Rain = 0
KVP1 250612Z 15015KT 19/18 A2998 RMK A01 T01900175  RH  091%=      5-min Rain = 0
KVP1 250613Z 14014KT 19/18 A2998 RMK A01 T01900175  RH  091%=      5-min Rain = 0
KVP1 250614Z 14015KT 19/18 A2998 RMK A01 T01900175  RH  091%=      5-min Rain = 0
KVP1 250615Z 14015KT 19/18 A2998 RMK A01 T01900175  RH  091%=      5-min Rain = 0
KVP1 250616Z 15015KT 19/18 A2998 RMK A01 T01900176  RH  091%=      5-min Rain = 0
KVP1 250617Z 15014KT 19/18 A2998 RMK A01 T01890175  RH  091%=      5-min Rain = 0
KVP1 250618Z 14014KT 19/18 A2998 RMK A01 T01890175  RH  091%=      5-min Rain = 0
KVP1 250619Z 15016KT 19/18 A2998 RMK A01 T01890175  RH  092%=      5-min Rain = 0
KVP1 250620Z 14015KT 19/18 A2998 RMK A01 T01900176  RH  092%=      5-min Rain = 0
KVP1 250621Z 14014KT 19/18 A2998 RMK A01 T01900175  RH  091%=      5-min Rain = 0
KVP1 250622Z 14014KT 19/18 A2998 RMK A01 T01900175  RH  091%=      5-min Rain = 0
KVP1 250623Z 15012KT 19/18 A2998 RMK A01 T01890175  RH  091%=      5-min Rain = 0
KVP1 250624Z 14012KT 19/18 A2998 RMK A01 T01890175  RH  092%=      5-min Rain = 0
KVP1 250625Z 14013KT 19/18 A2998 RMK A01 T01880175  RH  092%=      5-min Rain = 0
KVP1 250626Z 14014KT 19/18 A2998 RMK A01 T01870175  RH  092%=      5-min Rain = 0
KVP1 250627Z 14012KT 19/18 A2998 RMK A01 T01880175  RH  092%=      5-min Rain = 0
KVP1 250628Z 15013KT 19/17 A2998 RMK A01 T01870174  RH  092%=      5-min Rain = 0
KVP1 250629Z 15015KT 19/18 A2998 RMK A01 T01870175  RH  093%=      5-min Rain = 0
KVP1 250630Z 15014KT 19/18 A2998 RMK A01 T01870175  RH  093%=      5-min Rain = 0
KVP1 250631Z 15014KT 19/17 A2998 RMK A01 T01870174  RH  093%=      5-min Rain = 0
KVP1 250632Z 15012KT 19/17 A2998 RMK A01 T01870174  RH  093%=      5-min Rain = 0
KVP1 250633Z 14011KT 19/17 A2998 RMK A01 T01860174  RH  093%=      5-min Rain = 0
KVP1 250634Z 14014KT 19/17 A2998 RMK A01 T01860174  RH  093%=      5-min Rain = 0
KVP1 250635Z 14015KT 19/17 A2998 RMK A01 T01850174  RH  093%=      5-min Rain = 0
KVP1 250636Z 14014KT 19/17 A2998 RMK A01 T01850174  RH  093%=      5-min Rain = 0
KVP1 250637Z 14015KT 19/17 A2998 RMK A01 T01850174  RH  093%=      5-min Rain = 0
KVP1 250638Z 14014KT 19/17 A2998 RMK A01 T01850174  RH  093%=      5-min Rain = 0
KVP1 250639Z 14014KT 19/17 A2998 RMK A01 T01850174  RH  093%=      5-min Rain = 0
KVP1 250640Z 15013KT 19/17 A2998 RMK A01 T01850174  RH  093%=      5-min Rain = 0
KVP1 250641Z 14013KT 19/17 A2998 RMK A01 T01850174  RH  093%=      5-min Rain = 0
KVP1 250642Z 14012KT 18/17 A2998 RMK A01 T01840174  RH  094%=      5-min Rain = 0
KVP1 250643Z 15012KT 18/17 A2998 RMK A01 T01840174  RH  094%=      5-min Rain = 0
KVP1 250644Z 14012KT 18/17 A2998 RMK A01 T01830173  RH  094%=      5-min Rain = 0
KVP1 250645Z 14014KT 18/17 A2998 RMK A01 T01830174  RH  094%=      5-min Rain = 0
KVP1 250646Z 15013KT 18/17 A2998 RMK A01 T01830174  RH  094%=      5-min Rain = 0
KVP1 250647Z 14014KT 18/17 A2998 RMK A01 T01830174  RH  094%=      5-min Rain = 0
KVP1 250648Z 14014KT 18/17 A2998 RMK A01 T01830174  RH  094%=      5-min Rain = 0
KVP1 250649Z 14013KT 18/17 A2998 RMK A01 T01830174  RH  094%=      5-min Rain = 0
KVP1 250650Z 15015KT 18/17 A2998 RMK A01 T01830173  RH  094%=      5-min Rain = 0
KVP1 250651Z 14013KT 18/17 A2998 RMK A01 T01830174  RH  094%=      5-min Rain = 0
KVP1 250652Z 14015KT 18/17 A2998 RMK A01 T01830173  RH  094%=      5-min Rain = 0
KVP1 250653Z 14014KT 18/17 A2998 RMK A01 T01820173  RH  094%=      5-min Rain = 0
KVP1 250654Z 14014KT 18/17 A2998 RMK A01 T01830174  RH  094%=      5-min Rain = 0
KVP1 250655Z 14013KT 18/17 A2998 RMK A01 T01830174  RH  094%=      5-min Rain = 0
KVP1 250656Z 14015KT 18/17 A2998 RMK A01 T01820173  RH  095%=      5-min Rain = 0
KVP1 250657Z 14013KT 18/17 A2998 RMK A01 T01820173  RH  095%=      5-min Rain = 0
KVP1 250658Z 14012KT 18/17 A2998 RMK A01 T01820173  RH  095%=      5-min Rain = 0
KVP1 250659Z 14010KT 18/17 A2998 RMK A01 T01810173  RH  095%=      5-min Rain = 0
KVP1 250700Z 14013KT 18/17 A2998 RMK A01 T01810173  RH  095%=      5-min Rain = 0
KVP1 250701Z 13011KT 18/17 A2998 RMK A01 T01800173  RH  095%=      5-min Rain = 0
KVP1 250702Z 13012KT 18/17 A2998 RMK A01 T01800173  RH  095%=      5-min Rain = 0
KVP1 250703Z 14012KT 18/17 A2998 RMK A01 T01800173  RH  095%=      5-min Rain = 0
KVP1 250704Z 13012KT 18/17 A2998 RMK A01 T01790172  RH  096%=      5-min Rain = 0
KVP1 250705Z 13012KT 18/17 A2998 RMK A01 T01790172  RH  096%=      5-min Rain = 0
KVP1 250706Z 13012KT 18/17 A2998 RMK A01 T01790173  RH  096%=      5-min Rain = 0
KVP1 250707Z 13012KT 18/17 A2998 RMK A01 T01790173  RH  096%=      5-min Rain = 0
KVP1 250708Z 13012KT 18/17 A2998 RMK A01 T01790173  RH  096%=      5-min Rain = 0
KVP1 250709Z 13013KT 18/17 A2998 RMK A01 T01790172  RH  096%=      5-min Rain = 0
KVP1 250710Z 13012KT 18/17 A2998 RMK A01 T01790173  RH  096%=      5-min Rain = 0
KVP1 250711Z 13013KT 18/17 A2998 RMK A01 T01790173  RH  096%=      5-min Rain = 0
KVP1 250712Z 13012KT 18/17 A2998 RMK A01 T01790172  RH  096%=      5-min Rain = 0
KVP1 250713Z 13013KT 18/17 A2998 RMK A01 T01780172  RH  096%=      5-min Rain = 0
KVP1 250714Z 13012KT 18/17 A2998 RMK A01 T01780172  RH  096%=      5-min Rain = 0
KVP1 250715Z 13013KT 18/17 A2998 RMK A01 T01770172  RH  097%=      5-min Rain = 0
KVP1 250716Z 13012KT 18/17 A2998 RMK A01 T01770172  RH  097%=      5-min Rain = 0
KVP1 250717Z 13013KT 18/17 A2998 RMK A01 T01770172  RH  097%=      5-min Rain = 0
KVP1 250718Z 13015KT 18/17 A2998 RMK A01 T01780172  RH  097%=      5-min Rain = 0
KVP1 250719Z 13014KT 18/17 A2998 RMK A01 T01780173  RH  097%=      5-min Rain = 0
KVP1 250720Z 13013G18KT 18/17 A2998 RMK A01 T01780172  RH  097%=      5-min Rain = 0
KVP1 250721Z 13013KT 18/17 A2998 RMK A01 T01780172  RH  096%=      5-min Rain = 0
KVP1 250722Z 13013KT 18/17 A2997 RMK A01 T01780172  RH  096%=      5-min Rain = 0
KVP1 250723Z 13014KT 18/17 A2997 RMK A01 T01770172  RH  097%=      5-min Rain = 0
KVP1 250724Z 13013KT 18/17 A2997 RMK A01 T01770172  RH  097%=      5-min Rain = 0
KVP1 250725Z 13015KT 18/17 A2997 RMK A01 T01780173  RH  097%=      5-min Rain = 0
KVP1 250726Z 13014KT 18/17 A2997 RMK A01 T01770173  RH  097%=      5-min Rain = 0
KVP1 250727Z 13014KT 18/17 A2997 RMK A01 T01770173  RH  097%=      5-min Rain = 0
KVP1 250728Z 13013KT 18/17 A2997 RMK A01 T01770173  RH  097%=      5-min Rain = 0
KVP1 250729Z 13014KT 18/17 A2997 RMK A01 T01770173  RH  097%=      5-min Rain = 0
KVP1 250730Z 13013KT 18/17 A2998 RMK A01 T01770173  RH  097%=      5-min Rain = 0
KVP1 250731Z 14015KT 18/17 A2997 RMK A01 T01770173  RH  097%=      5-min Rain = 0
KVP1 250732Z 13015KT 18/17 A2998 RMK A01 T01770173  RH  097%=      5-min Rain = 0
KVP1 250733Z 13014KT 18/17 A2998 RMK A01 T01770173  RH  097%=      5-min Rain = 0
KVP1 250734Z 13013KT 18/17 A2998 RMK A01 T01770172  RH  097%=      5-min Rain = 0
KVP1 250735Z 14011KT 18/17 A2998 RMK A01 T01770172  RH  097%=      5-min Rain = 0
KVP1 250736Z 14014KT 18/17 A2998 RMK A01 T01760172  RH  097%=      5-min Rain = 0
KVP1 250737Z 14015KT 18/17 A2998 RMK A01 T01760173  RH  098%=      5-min Rain = 0
KVP1 250738Z 13015KT 18/17 A2998 RMK A01 T01760173  RH  098%=      5-min Rain = 0
KVP1 250739Z 14013KT 18/17 A2998 RMK A01 T01760173  RH  098%=      5-min Rain = 0
KVP1 250740Z 14015KT 18/17 A2998 RMK A01 T01760173  RH  098%=      5-min Rain = 0
KVP1 250741Z 14013KT 18/17 A2998 RMK A01 T01770173  RH  098%=      5-min Rain = 0
KVP1 250742Z 14013KT 18/17 A2998 RMK A01 T01770173  RH  098%=      5-min Rain = 0
KVP1 250743Z 14014KT 18/17 A2998 RMK A01 T01770173  RH  098%=      5-min Rain = 0
KVP1 250744Z 14011KT 18/17 A2998 RMK A01 T01770174  RH  098%=      5-min Rain = 0
KVP1 250745Z 14013KT 18/17 A2998 RMK A01 T01770174  RH  098%=      5-min Rain = 0
KVP1 250746Z 14013KT 18/17 A2998 RMK A01 T01770174  RH  098%=      5-min Rain = 0
KVP1 250747Z 13012KT 18/17 A2998 RMK A01 T01770174  RH  098%=      5-min Rain = 0
KVP1 250748Z 13011KT 18/17 A2998 RMK A01 T01770174  RH  098%=      5-min Rain = 0
KVP1 250749Z 13010KT 18/17 A2998 RMK A01 T01770174  RH  098%=      5-min Rain = 0
KVP1 250750Z 13012KT 18/17 A2998 RMK A01 T01770174  RH  098%=      5-min Rain = 0
KVP1 250751Z 13010KT 18/17 A2998 RMK A01 T01770174  RH  098%=      5-min Rain = 0
KVP1 250752Z 13012KT 18/17 A2998 RMK A01 T01770174  RH  098%=      5-min Rain = 0
KVP1 250753Z 13012KT 18/17 A2998 RMK A01 T01770174  RH  098%=      5-min Rain = 0
KVP1 250754Z 13011KT 18/17 A2998 RMK A01 T01770174  RH  098%=      5-min Rain = 0
KVP1 250755Z 13012KT 18/17 A2998 RMK A01 T01770174  RH  098%=      5-min Rain = 0
KVP1 250756Z 13012G17KT 18/18 A2998 RMK A01 T01770175  RH  098%=      5-min Rain = 0
KVP1 250757Z 13012KT 18/18 A2998 RMK A01 T01780175  RH  098%=      5-min Rain = 0
KVP1 250758Z 13012KT 18/18 A2998 RMK A01 T01780175  RH  098%=      5-min Rain = 0
KVP1 250759Z 13010KT 18/18 A2998 RMK A01 T01780175  RH  098%=      5-min Rain = 0
KVP1 250800Z 14010KT 18/18 A2998 RMK A01 T01780175  RH  098%=      5-min Rain = 0
KVP1 250801Z 14012KT 18/18 A2998 RMK A01 T01780175  RH  098%=      5-min Rain = 0
KVP1 250802Z 13011KT 18/18 A2998 RMK A01 T01780175  RH  098%=      5-min Rain = 0
KVP1 250803Z 13012KT 18/18 A2998 RMK A01 T01780175  RH  098%=      5-min Rain = 0
KVP1 250804Z 13010KT 18/18 A2998 RMK A01 T01790176  RH  098%=      5-min Rain = 0
KVP1 250805Z 13012KT 18/18 A2998 RMK A01 T01790176  RH  098%=      5-min Rain = 0
KVP1 250806Z 13011KT 18/18 A2998 RMK A01 T01790176  RH  098%=      5-min Rain = 0
KVP1 250807Z 13013KT 18/18 A2998 RMK A01 T01790176  RH  098%=      5-min Rain = 0
KVP1 250808Z 13012KT 18/18 A2998 RMK A01 T01790176  RH  098%=      5-min Rain = 0
KVP1 250809Z 13011KT 18/18 A2998 RMK A01 T01790176  RH  098%=      5-min Rain = 0
KVP1 250810Z 14012KT 18/18 A2998 RMK A01 T01790176  RH  098%=      5-min Rain = 0
KVP1 250811Z 13012KT 18/18 A2998 RMK A01 T01790176  RH  098%=      5-min Rain = 0
KVP1 250812Z 13012KT 18/18 A2998 RMK A01 T01790175  RH  098%=      5-min Rain = 0
KVP1 250813Z 13010KT 18/18 A2998 RMK A01 T01800176  RH  098%=      5-min Rain = 0
KVP1 250814Z 14011KT 18/18 A2998 RMK A01 T01800176  RH  098%=      5-min Rain = 0
KVP1 250815Z 14010KT 18/18 A2998 RMK A01 T01800176  RH  098%=      5-min Rain = 0
KVP1 250816Z 13010KT 18/18 A2998 RMK A01 T01800176  RH  098%=      5-min Rain = 0
KVP1 250817Z 14011KT 18/18 A2998 RMK A01 T01800176  RH  098%=      5-min Rain = 0
KVP1 250818Z 14010KT 18/18 A2998 RMK A01 T01800176  RH  098%=      5-min Rain = 0
KVP1 250819Z 14009KT 18/18 A2998 RMK A01 T01800176  RH  098%=      5-min Rain = 0
KVP1 250820Z 14008KT 18/18 A2998 RMK A01 T01800176  RH  098%=      5-min Rain = 0
KVP1 250821Z 14010KT 18/18 A2998 RMK A01 T01800176  RH  098%=      5-min Rain = 0
KVP1 250822Z 14010KT 18/18 A2998 RMK A01 T01800177  RH  098%=      5-min Rain = 0
KVP1 250823Z 14010KT 18/18 A2998 RMK A01 T01800177  RH  098%=      5-min Rain = 0
KVP1 250824Z 14011KT 18/18 A2998 RMK A01 T01800177  RH  098%=      5-min Rain = 0
KVP1 250825Z 14010KT 18/18 A2998 RMK A01 T01800177  RH  098%=      5-min Rain = 0
KVP1 250826Z 14010KT 18/18 A2998 RMK A01 T01800177  RH  098%=      5-min Rain = 0
KVP1 250827Z 14010KT 18/18 A2998 RMK A01 T01800177  RH  098%=      5-min Rain = 0
KVP1 250828Z 14009KT 18/18 A2998 RMK A01 T01800177  RH  098%=      5-min Rain = 0
KVP1 250829Z 14009KT 18/18 A2998 RMK A01 T01800177  RH  098%=      5-min Rain = 0
KVP1 250830Z 14009KT 18/18 A2998 RMK A01 T01800177  RH  098%=      5-min Rain = 0
KVP1 250831Z 14008KT 18/18 A2998 RMK A01 T01800177  RH  098%=      5-min Rain = 0
KVP1 250832Z 14011KT 18/18 A2998 RMK A01 T01800177  RH  098%=      5-min Rain = 0
KVP1 250833Z 14010KT 18/18 A2998 RMK A01 T01800177  RH  098%=      5-min Rain = 0
KVP1 250834Z 14010KT 18/18 A2998 RMK A01 T01800178  RH  099%=      5-min Rain = 0
KVP1 250835Z 13010KT 18/18 A2998 RMK A01 T01800177  RH  098%=      5-min Rain = 0
KVP1 250836Z 13009KT 18/18 A2998 RMK A01 T01800177  RH  098%=      5-min Rain = 0
KVP1 250837Z 13009KT 18/18 A2998 RMK A01 T01800177  RH  098%=      5-min Rain = 0
KVP1 250838Z 14010KT 18/18 A2998 RMK A01 T01800177  RH  099%=      5-min Rain = 0
KVP1 250839Z 13010KT 18/18 A2998 RMK A01 T01790177  RH  099%=      5-min Rain = 0
KVP1 250840Z 14011KT 18/18 A2998 RMK A01 T01790177  RH  099%=      5-min Rain = 0
KVP1 250841Z 14010KT 18/18 A2998 RMK A01 T01790177  RH  099%=      5-min Rain = 0
KVP1 250842Z 14008KT 18/18 A2998 RMK A01 T01800178  RH  099%=      5-min Rain = 0
KVP1 250843Z 14009KT 18/18 A2998 RMK A01 T01800178  RH  099%=      5-min Rain = 0
KVP1 250844Z 14010KT 18/18 A2998 RMK A01 T01800177  RH  099%=      5-min Rain = 0
KVP1 250845Z 14009KT 18/18 A2998 RMK A01 T01800178  RH  099%=      5-min Rain = 0
KVP1 250846Z 14010KT 18/18 A2998 RMK A01 T01800178  RH  099%=      5-min Rain = 0
KVP1 250847Z 15009KT 18/18 A2998 RMK A01 T01800178  RH  099%=      5-min Rain = 0
KVP1 250848Z 15009KT 18/18 A2998 RMK A01 T01800178  RH  099%=      5-min Rain = 0
KVP1 250849Z 15007KT 18/18 A2998 RMK A01 T01800178  RH  099%=      5-min Rain = 0
KVP1 250850Z 14007KT 18/18 A2998 RMK A01 T01800177  RH  099%=      5-min Rain = 0
KVP1 250851Z 15008KT 18/18 A2998 RMK A01 T01800178  RH  099%=      5-min Rain = 0
KVP1 250852Z 15008KT 18/18 A2998 RMK A01 T01800178  RH  099%=      5-min Rain = 0
KVP1 250853Z 14008KT 18/18 A2998 RMK A01 T01800178  RH  099%=      5-min Rain = 0
KVP1 250854Z 14007KT 18/18 A2998 RMK A01 T01800178  RH  099%=      5-min Rain = 0
KVP1 250855Z 14008KT 18/18 A2998 RMK A01 T01800178  RH  099%=      5-min Rain = 0
KVP1 250856Z 14012KT 18/18 A2998 RMK A01 T01800178  RH  099%=      5-min Rain = 0
KVP1 250857Z 15012KT 18/18 A2998 RMK A01 T01800178  RH  099%=      5-min Rain = 0
KVP1 250858Z 15012KT 18/18 A2998 RMK A01 T01800178  RH  099%=      5-min Rain = 0
KVP1 250859Z 15011KT 18/18 A2998 RMK A01 T01800178  RH  099%=      5-min Rain = 0
KVP1 250900Z 15010KT 18/18 A2998 RMK A01 T01800178  RH  099%=      5-min Rain = 0
KVP1 250901Z 15010KT 18/18 A2998 RMK A01 T01800178  RH  099%=      5-min Rain = 0
KVP1 250902Z 15011KT 18/18 A2998 RMK A01 T01800178  RH  099%=      5-min Rain = 0
KVP1 250903Z 15013KT 18/18 A2998 RMK A01 T01800178  RH  099%=      5-min Rain = 0
KVP1 250904Z 16010KT 18/18 A2998 RMK A01 T01790178  RH  099%=      5-min Rain = 0
KVP1 250905Z 15011KT 18/18 A2998 RMK A01 T01790178  RH  099%=      5-min Rain = 0
KVP1 250906Z 15013KT 18/18 A2998 RMK A01 T01790178  RH  099%=      5-min Rain = 0
KVP1 250907Z 15014KT 18/18 A2998 RMK A01 T01790178  RH  100%=      5-min Rain = 0
KVP1 250908Z 14012KT 18/18 A2998 RMK A01 T01790178  RH  100%=      5-min Rain = 0
KVP1 250909Z 14013KT 18/18 A2998 RMK A01 T01790179  RH  100%=      5-min Rain = 0
KVP1 250910Z 14013KT 18/18 A2998 RMK A01 T01790178  RH  100%=      5-min Rain = 0
KVP1 250911Z 15013KT 18/18 A2998 RMK A01 T01790179  RH  100%=      5-min Rain = 0
KVP1 250912Z 15013KT 18/18 A2998 RMK A01 T01780179  RH  100%=      5-min Rain = 0
KVP1 250913Z 15014KT 18/18 A2998 RMK A01 T01790179  RH  100%=      5-min Rain = 0
KVP1 250914Z 15013KT 18/18 A2998 RMK A01 T01780178  RH  100%=      5-min Rain = 0
KVP1 250915Z 15013KT 18/18 A2998 RMK A01 T01780178  RH  100%=      5-min Rain = 0
KVP1 250916Z 15012KT 18/18 A2998 RMK A01 T01770178  RH  100%=      5-min Rain = 0
KVP1 250917Z 15011KT 18/18 A2998 RMK A01 T01770178  RH  100%=      5-min Rain = 0
KVP1 250918Z 15012KT 18/18 A2998 RMK A01 T01770177  RH  100%=      5-min Rain = 0
KVP1 250919Z 14011KT 18/18 A2998 RMK A01 T01770177  RH  100%=      5-min Rain = 0
KVP1 250920Z 15011KT 18/18 A2998 RMK A01 T01770177  RH  100%=      5-min Rain = 0
KVP1 250921Z 15014KT 18/18 A2998 RMK A01 T01770177  RH  100%=      5-min Rain = 0
KVP1 250922Z 14011KT 18/18 A2998 RMK A01 T01760177  RH  100%=      5-min Rain = 0
KVP1 250923Z 15010KT 18/18 A2998 RMK A01 T01770177  RH  100%=      5-min Rain = 0
KVP1 250924Z 15010KT 18/18 A2998 RMK A01 T01760177  RH  100%=      5-min Rain = 0
KVP1 250925Z 14012KT 18/18 A2997 RMK A01 T01760176  RH  100%=      5-min Rain = 0
KVP1 250926Z 15011KT 18/18 A2997 RMK A01 T01760176  RH  100%=      5-min Rain = 0
KVP1 250927Z 15011KT 18/18 A2997 RMK A01 T01760176  RH  100%=      5-min Rain = 0
KVP1 250928Z 14010KT 18/18 A2997 RMK A01 T01760176  RH  100%=      5-min Rain = 0
KVP1 250929Z 15013KT 18/18 A2997 RMK A01 T01760176  RH  100%=      5-min Rain = 0
KVP1 250930Z 15011KT 18/18 A2997 RMK A01 T01760176  RH  100%=      5-min Rain = 0
KVP1 250931Z 15012KT 18/18 A2997 RMK A01 T01760176  RH  100%=      5-min Rain = 0
KVP1 250932Z 15013KT 18/18 A2997 RMK A01 T01760176  RH  100%=      5-min Rain = 0
KVP1 250933Z 15012KT 18/18 A2997 RMK A01 T01750176  RH  100%=      5-min Rain = 0
KVP1 250934Z 15011KT 18/18 A2997 RMK A01 T01760176  RH  100%=      5-min Rain = 0
KVP1 250935Z 15010KT 18/18 A2997 RMK A01 T01760176  RH  100%=      5-min Rain = 0
KVP1 250936Z 14013KT 18/18 A2997 RMK A01 T01760176  RH  100%=      5-min Rain = 0
KVP1 250937Z 14014KT 18/18 A2997 RMK A01 T01760176  RH  100%=      5-min Rain = 0
KVP1 250938Z 14012KT 18/18 A2997 RMK A01 T01760176  RH  100%=      5-min Rain = 0
KVP1 250939Z 14011KT 18/18 A2997 RMK A01 T01760176  RH  100%=      5-min Rain = 0
KVP1 250940Z 14012KT 18/18 A2997 RMK A01 T01760176  RH  100%=      5-min Rain = 0
KVP1 250941Z 14011KT 18/18 A2997 RMK A01 T01760176  RH  100%=      5-min Rain = 0
KVP1 250942Z 14013KT 18/18 A2997 RMK A01 T01760176  RH  100%=      5-min Rain = 0
KVP1 250943Z 14014KT 18/18 A2997 RMK A01 T01760176  RH  100%=      5-min Rain = 0
KVP1 250944Z 15012KT 18/18 A2997 RMK A01 T01760176  RH  100%=      5-min Rain = 0
KVP1 250945Z 15011KT 18/18 A2997 RMK A01 T01760176  RH  100%=      5-min Rain = 0
KVP1 250946Z 15013KT 18/18 A2997 RMK A01 T01760176  RH  100%=      5-min Rain = 0
KVP1 250947Z 14013KT 18/18 A2997 RMK A01 T01760176  RH  100%=      5-min Rain = 0
KVP1 250948Z 14014KT 18/18 A2997 RMK A01 T01760176  RH  100%=      5-min Rain = 0
KVP1 250949Z 15011KT 18/18 A2998 RMK A01 T01760176  RH  100%=      5-min Rain = 0
KVP1 250950Z 15012KT 18/18 A2998 RMK A01 T01760176  RH  100%=      5-min Rain = 0
KVP1 250951Z 15012KT 18/18 A2998 RMK A01 T01760176  RH  100%=      5-min Rain = 0
KVP1 250952Z 15010KT 18/18 A2998 RMK A01 T01760176  RH  100%=      5-min Rain = 0
KVP1 250953Z 15012KT 18/18 A2998 RMK A01 T01760176  RH  100%=      5-min Rain = 0
KVP1 250954Z 15013KT 18/18 A2998 RMK A01 T01760176  RH  100%=      5-min Rain = 0
KVP1 250955Z 15010KT 18/18 A2998 RMK A01 T01760176  RH  100%=      5-min Rain = 0
KVP1 250956Z 15010KT 18/18 A2998 RMK A01 T01760176  RH  100%=      5-min Rain = 0
KVP1 250957Z 15010KT 18/18 A2998 RMK A01 T01760176  RH  100%=      5-min Rain = 0
KVP1 250958Z 14012KT 18/18 A2998 RMK A01 T01770177  RH  100%=      5-min Rain = 0
KVP1 250959Z 15012KT 18/18 A2998 RMK A01 T01770177  RH  100%=      5-min Rain = 0
KVP1 251000Z 15011KT 18/18 A2998 RMK A01 T01770177  RH  100%=      5-min Rain = 0
KVP1 251001Z 15013KT 18/18 A2998 RMK A01 T01770177  RH  100%=      5-min Rain = 0
KVP1 251002Z 15011KT 18/18 A2998 RMK A01 T01770177  RH  100%=      5-min Rain = 0
KVP1 251003Z 15010KT 18/18 A2998 RMK A01 T01770177  RH  100%=      5-min Rain = 0
KVP1 251004Z 15011KT 18/18 A2998 RMK A01 T01770177  RH  100%=      5-min Rain = 0
KVP1 251005Z 15011KT 18/18 A2998 RMK A01 T01770177  RH  100%=      5-min Rain = 0
KVP1 251006Z 15010KT 18/18 A2998 RMK A01 T01770177  RH  100%=      5-min Rain = 0
KVP1 251007Z 15011KT 18/18 A2998 RMK A01 T01770177  RH  100%=      5-min Rain = 0
KVP1 251008Z 15011KT 18/18 A2998 RMK A01 T01780178  RH  100%=      5-min Rain = 0
KVP1 251009Z 15010KT 18/18 A2998 RMK A01 T01770178  RH  100%=      5-min Rain = 0
KVP1 251010Z 15011KT 18/18 A2999 RMK A01 T01770178  RH  100%=      5-min Rain = 0
KVP1 251011Z 15013KT 18/18 A2999 RMK A01 T01770178  RH  100%=      5-min Rain = 0
KVP1 251012Z 15011KT 18/18 A2999 RMK A01 T01770177  RH  100%=      5-min Rain = 0
KVP1 251013Z 15010KT 18/18 A2999 RMK A01 T01780178  RH  100%=      5-min Rain = 0
KVP1 251014Z 15009KT 18/18 A2999 RMK A01 T01770177  RH  100%=      5-min Rain = 0
KVP1 251015Z 15010KT 18/18 A2999 RMK A01 T01770178  RH  100%=      5-min Rain = 0
KVP1 251016Z 15008KT 18/18 A2999 RMK A01 T01780178  RH  100%=      5-min Rain = 0
KVP1 251017Z 15009KT 18/18 A2999 RMK A01 T01780178  RH  100%=      5-min Rain = 0
KVP1 251018Z 14009KT 18/18 A2999 RMK A01 T01780178  RH  100%=      5-min Rain = 0
KVP1 251019Z 14008KT 18/18 A2999 RMK A01 T01780178  RH  100%=      5-min Rain = 0
KVP1 251020Z 14009KT 18/18 A2999 RMK A01 T01780178  RH  100%=      5-min Rain = 0
KVP1 251021Z 14011KT 18/18 A2999 RMK A01 T01780178  RH  100%=      5-min Rain = 0
KVP1 251022Z 14011KT 18/18 A2999 RMK A01 T01780179  RH  100%=      5-min Rain = 0
KVP1 251023Z 14009KT 18/18 A2999 RMK A01 T01780179  RH  100%=      5-min Rain = 0
KVP1 251024Z 14009KT 18/18 A2999 RMK A01 T01780179  RH  100%=      5-min Rain = 0
KVP1 251025Z 14009KT 18/18 A2999 RMK A01 T01780178  RH  100%=      5-min Rain = 0
KVP1 251026Z 14008KT 18/18 A2999 RMK A01 T01790179  RH  100%=      5-min Rain = 0
KVP1 251027Z 14008KT 18/18 A2999 RMK A01 T01790179  RH  100%=      5-min Rain = 0
KVP1 251028Z 15010KT 18/18 A2999 RMK A01 T01790179  RH  100%=      5-min Rain = 0
KVP1 251029Z 15010KT 18/18 A2999 RMK A01 T01790179  RH  100%=      5-min Rain = 0
KVP1 251030Z 15010KT 18/18 A2999 RMK A01 T01790179  RH  100%=      5-min Rain = 0
KVP1 251031Z 15009KT 18/18 A2999 RMK A01 T01790179  RH  100%=      5-min Rain = 0
KVP1 251032Z 14008KT 18/18 A2999 RMK A01 T01790180  RH  100%=      5-min Rain = 0
KVP1 251033Z 14009KT 18/18 A2999 RMK A01 T01790180  RH  100%=      5-min Rain = 0
KVP1 251034Z 15010KT 18/18 A2999 RMK A01 T01800180  RH  100%=      5-min Rain = 0
KVP1 251035Z 14010KT 18/18 A2999 RMK A01 T01800180  RH  100%=      5-min Rain = 0
KVP1 251036Z 15010KT 18/18 A2999 RMK A01 T01800180  RH  100%=      5-min Rain = 0
KVP1 251037Z 14010KT 18/18 A2999 RMK A01 T01800180  RH  100%=      5-min Rain = 0
KVP1 251038Z 15010KT 18/18 A2999 RMK A01 T01800181  RH  100%=      5-min Rain = 0
KVP1 251039Z 15010KT 18/18 A2999 RMK A01 T01800180  RH  100%=      5-min Rain = 0
KVP1 251040Z 15010KT 18/18 A2999 RMK A01 T01810181  RH  100%=      5-min Rain = 0
KVP1 251041Z 15011KT 18/18 A2999 RMK A01 T01810181  RH  100%=      5-min Rain = 0
KVP1 251042Z 15009KT 18/18 A2999 RMK A01 T01800181  RH  100%=      5-min Rain = 0
KVP1 251043Z 15009KT 18/18 A2999 RMK A01 T01810181  RH  100%=      5-min Rain = 0
KVP1 251044Z 14009KT 18/18 A2999 RMK A01 T01810181  RH  100%=      5-min Rain = 0
KVP1 251045Z 15009KT 18/18 A2999 RMK A01 T01810181  RH  100%=      5-min Rain = 0
KVP1 251046Z 15010KT 18/18 A2999 RMK A01 T01810181  RH  100%=      5-min Rain = 0
KVP1 251047Z 14010KT 18/18 A2999 RMK A01 T01810181  RH  100%=      5-min Rain = 0
KVP1 251048Z 15011KT 18/18 A2999 RMK A01 T01820182  RH  100%=      5-min Rain = 0
KVP1 251049Z 15009KT 18/18 A2999 RMK A01 T01820182  RH  100%=      5-min Rain = 0
KVP1 251050Z 15010KT 18/18 A2999 RMK A01 T01820182  RH  100%=      5-min Rain = 0
KVP1 251051Z 15010KT 18/18 A2999 RMK A01 T01820182  RH  100%=      5-min Rain = 0
KVP1 251052Z 15010KT 18/18 A2999 RMK A01 T01820182  RH  100%=      5-min Rain = 0
KVP1 251053Z 15010KT 18/18 A2999 RMK A01 T01820182  RH  100%=      5-min Rain = 0
KVP1 251054Z 15010KT 18/18 A2999 RMK A01 T01820182  RH  100%=      5-min Rain = 0
KVP1 251055Z 15009KT 18/18 A2999 RMK A01 T01820182  RH  100%=      5-min Rain = 0
KVP1 251056Z 15011KT 18/18 A2999 RMK A01 T01820182  RH  100%=      5-min Rain = 0
KVP1 251057Z 15010KT 18/18 A2999 RMK A01 T01820183  RH  100%=      5-min Rain = 0
KVP1 251058Z 15009KT 18/18 A2999 RMK A01 T01820183  RH  100%=      5-min Rain = 0
KVP1 251059Z 15009KT 18/18 A2999 RMK A01 T01820183  RH  100%=      5-min Rain = 0
KVP1 251100Z 15011KT 18/18 A2999 RMK A01 T01820183  RH  100%=      5-min Rain = 0
KVP1 251101Z 15010KT 18/18 A2999 RMK A01 T01830183  RH  100%=      5-min Rain = 0
KVP1 251102Z 14009KT 18/18 A2999 RMK A01 T01830183  RH  100%=      5-min Rain = 0
KVP1 251103Z 15008KT 18/18 A2999 RMK A01 T01830183  RH  100%=      5-min Rain = 0
KVP1 251104Z 15009KT 18/18 A2999 RMK A01 T01830183  RH  100%=      5-min Rain = 0
KVP1 251105Z 15010KT 18/18 A2999 RMK A01 T01830183  RH  100%=      5-min Rain = 0
KVP1 251106Z 15009KT 18/18 A2999 RMK A01 T01830183  RH  100%=      5-min Rain = 0
KVP1 251107Z 15008KT 18/18 A2999 RMK A01 T01830183  RH  100%=      5-min Rain = 0
KVP1 251108Z 15008KT 18/18 A2999 RMK A01 T01830183  RH  100%=      5-min Rain = 0
KVP1 251109Z 15009KT 18/18 A2999 RMK A01 T01830183  RH  100%=      5-min Rain = 0
KVP1 251110Z 15009KT 18/18 A2999 RMK A01 T01830183  RH  100%=      5-min Rain = 0
KVP1 251111Z 15008KT 18/18 A2999 RMK A01 T01830183  RH  100%=      5-min Rain = 0
KVP1 251112Z 15008KT 18/18 A2999 RMK A01 T01830183  RH  100%=      5-min Rain = 0
KVP1 251113Z 15009KT 18/18 A2999 RMK A01 T01830184  RH  100%=      5-min Rain = 0
KVP1 251114Z 15009KT 18/18 A2999 RMK A01 T01830183  RH  100%=      5-min Rain = 0
KVP1 251115Z 14008KT 18/18 A2999 RMK A01 T01830183  RH  100%=      5-min Rain = 0
KVP1 251116Z 15009KT 18/18 A2999 RMK A01 T01830184  RH  100%=      5-min Rain = 0
KVP1 251117Z 15008KT 18/18 A2999 RMK A01 T01830184  RH  100%=      5-min Rain = 0
KVP1 251118Z 15008KT 18/18 A2999 RMK A01 T01830183  RH  100%=      5-min Rain = 0
KVP1 251119Z 15008KT 18/18 A2999 RMK A01 T01830183  RH  100%=      5-min Rain = 0
KVP1 251120Z 15008KT 18/18 A2999 RMK A01 T01830183  RH  100%=      5-min Rain = 0
KVP1 251121Z 15008KT 18/18 A2999 RMK A01 T01830184  RH  100%=      5-min Rain = 0
KVP1 251122Z 14008KT 18/18 A2999 RMK A01 T01840184  RH  100%=      5-min Rain = 0
KVP1 251123Z 15007KT 18/18 A2999 RMK A01 T01830183  RH  100%=      5-min Rain = 0
KVP1 251124Z 15009KT 18/18 A2999 RMK A01 T01840184  RH  100%=      5-min Rain = 0
KVP1 251125Z 15009KT 18/18 A30 RMK A01 T01840184  RH  100%=      5-min Rain = 0
KVP1 251126Z 15008KT 18/18 A30 RMK A01 T01840184  RH  100%=      5-min Rain = 0
KVP1 251127Z 15008KT 18/18 A30 RMK A01 T01840184  RH  100%=      5-min Rain = 0
KVP1 251128Z 15008KT 18/18 A30 RMK A01 T01840184  RH  100%=      5-min Rain = 0
KVP1 251129Z 16009KT 18/18 A30 RMK A01 T01840184  RH  100%=      5-min Rain = 0
KVP1 251130Z 16008KT 18/18 A30 RMK A01 T01840184  RH  100%=      5-min Rain = 0
KVP1 251131Z 15008KT 18/18 A30 RMK A01 T01840184  RH  100%=      5-min Rain = 0
KVP1 251132Z 15007KT 18/19 A30 RMK A01 T01840185  RH  100%=      5-min Rain = 0
KVP1 251133Z 15008KT 18/19 A30 RMK A01 T01840185  RH  100%=      5-min Rain = 0
KVP1 251134Z 15008KT 18/18 A30 RMK A01 T01840184  RH  100%=      5-min Rain = 0
KVP1 251135Z 15008KT 19/19 A30 RMK A01 T01850185  RH  100%=      5-min Rain = 0
KVP1 251136Z 15008KT 18/19 A30 RMK A01 T01840185  RH  100%=      5-min Rain = 0
KVP1 251137Z 15008KT 18/19 A30 RMK A01 T01840185  RH  100%=      5-min Rain = 0
KVP1 251138Z 15009KT 18/18 A30 RMK A01 T01840184  RH  100%=      5-min Rain = 0
KVP1 251139Z 15009KT 19/19 A30 RMK A01 T01850185  RH  100%=      5-min Rain = 0
KVP1 251140Z 15008KT 19/19 A30 RMK A01 T01850185  RH  100%=      5-min Rain = 0
KVP1 251141Z 15008KT 19/19 A30 RMK A01 T01850185  RH  100%=      5-min Rain = 0
KVP1 251142Z 15007KT 19/19 A30 RMK A01 T01850185  RH  100%=      5-min Rain = 0
KVP1 251143Z 15007KT 19/19 A30 RMK A01 T01850185  RH  100%=      5-min Rain = 0
KVP1 251144Z 15006KT 19/19 A30 RMK A01 T01850185  RH  100%=      5-min Rain = 0
KVP1 251145Z 15007KT 19/19 A30 RMK A01 T01850185  RH  100%=      5-min Rain = 0
KVP1 251146Z 15007KT 19/19 A30 RMK A01 T01850185  RH  100%=      5-min Rain = 0
KVP1 251147Z 15007KT 19/19 A30 RMK A01 T01850185  RH  100%=      5-min Rain = 0
KVP1 251148Z 15008KT 19/19 A30 RMK A01 T01850185  RH  100%=      5-min Rain = 0
KVP1 251149Z 15008KT 19/19 A30 RMK A01 T01850186  RH  100%=      5-min Rain = 0
KVP1 251150Z 15007KT 19/19 A30 RMK A01 T01850185  RH  100%=      5-min Rain = 0
KVP1 251151Z 15007KT 19/19 A30 RMK A01 T01860186  RH  100%=      5-min Rain = 0
KVP1 251152Z 15008KT 19/19 A30 RMK A01 T01860185  RH  100%=      5-min Rain = 0
KVP1 251153Z 15008KT 19/19 A30 RMK A01 T01860186  RH  100%=      5-min Rain = 0
KVP1 251154Z 15007KT 19/19 A30 RMK A01 T01860186  RH  100%=      5-min Rain = 0
KVP1 251155Z 15008KT 19/19 A30 RMK A01 T01860186  RH  100%=      5-min Rain = 0
KVP1 251156Z 16006KT 19/19 A30 RMK A01 T01860186  RH  100%=      5-min Rain = 0
KVP1 251157Z 14005KT 19/19 A3001 RMK A01 T01860186  RH  100%=      5-min Rain = 0
KVP1 251158Z 15007KT 19/19 A3001 RMK A01 T01860186  RH  100%=      5-min Rain = 0
KVP1 251159Z 14005KT 19/19 A3001 RMK A01 T01860186  RH  100%=      5-min Rain = 0
KVP1 251200Z 15005KT 19/19 A3001 RMK A01 T01860186  RH  100%=      5-min Rain = 0
KVP1 251201Z 15006KT 19/19 A3001 RMK A01 T01860186  RH  100%=      5-min Rain = 0
KVP1 251202Z 15006KT 19/19 A3001 RMK A01 T01860186  RH  100%=      5-min Rain = 0
KVP1 251203Z 16006KT 19/19 A3001 RMK A01 T01860186  RH  100%=      5-min Rain = 0
KVP1 251204Z 15005KT 19/19 A3001 RMK A01 T01860186  RH  100%=      5-min Rain = 0
KVP1 251205Z 15006KT 19/19 A3001 RMK A01 T01860186  RH  100%=      5-min Rain = 0
KVP1 251206Z 15006KT 19/19 A3001 RMK A01 T01870186  RH  100%=      5-min Rain = 0
KVP1 251207Z 15006KT 19/19 A3001 RMK A01 T01870186  RH  100%=      5-min Rain = 0
KVP1 251208Z 15006KT 19/19 A3001 RMK A01 T01860186  RH  100%=      5-min Rain = 0
KVP1 251209Z 16006KT 19/19 A3001 RMK A01 T01870186  RH  100%=      5-min Rain = 0
KVP1 251210Z 16006KT 19/19 A3001 RMK A01 T01870186  RH  100%=      5-min Rain = 0
KVP1 251211Z 16007KT 19/19 A3001 RMK A01 T01870186  RH  100%=      5-min Rain = 0
KVP1 251212Z 15007KT 19/19 A3001 RMK A01 T01870186  RH  099%=      5-min Rain = 0
KVP1 251213Z 15006KT 19/19 A3001 RMK A01 T01870186  RH  099%=      5-min Rain = 0
KVP1 251214Z 16007KT 19/19 A3001 RMK A01 T01880187  RH  099%=      5-min Rain = 0
KVP1 251215Z 15007KT 19/19 A3001 RMK A01 T01870186  RH  099%=      5-min Rain = 0
KVP1 251216Z 16005KT 19/19 A3001 RMK A01 T01870186  RH  099%=      5-min Rain = 0
KVP1 251217Z 16007KT 19/19 A3001 RMK A01 T01870186  RH  099%=      5-min Rain = 0
KVP1 251218Z 17006KT 19/19 A3001 RMK A01 T01880186  RH  099%=      5-min Rain = 0
KVP1 251219Z 16007KT 19/19 A3001 RMK A01 T01870186  RH  099%=      5-min Rain = 0
KVP1 251220Z 15008KT 19/19 A3002 RMK A01 T01880186  RH  099%=      5-min Rain = 0
KVP1 251221Z 15009KT 19/19 A3001 RMK A01 T01880187  RH  099%=      5-min Rain = 0
KVP1 251222Z 16010KT 19/19 A3002 RMK A01 T01880186  RH  099%=      5-min Rain = 0
KVP1 251223Z 15007KT 19/19 A3002 RMK A01 T01880186  RH  099%=      5-min Rain = 0
KVP1 251224Z 15006KT 19/19 A3002 RMK A01 T01880186  RH  099%=      5-min Rain = 0
KVP1 251225Z 16006KT 19/19 A3002 RMK A01 T01880186  RH  099%=      5-min Rain = 0
KVP1 251226Z 16006KT 19/19 A3002 RMK A01 T01890186  RH  099%=      5-min Rain = 0
KVP1 251227Z 16007KT 19/19 A3002 RMK A01 T01880186  RH  099%=      5-min Rain = 0
KVP1 251228Z 16007KT 19/19 A3002 RMK A01 T01890187  RH  099%=      5-min Rain = 0
KVP1 251229Z 16006KT 19/19 A3002 RMK A01 T01880186  RH  099%=      5-min Rain = 0
KVP1 251230Z 16007KT 19/19 A3002 RMK A01 T01880186  RH  099%=      5-min Rain = 0
KVP1 251231Z 16007KT 19/19 A3002 RMK A01 T01890186  RH  099%=      5-min Rain = 0
KVP1 251232Z 17006KT 19/19 A3002 RMK A01 T01880186  RH  099%=      5-min Rain = 0
KVP1 251233Z 17006KT 19/19 A3002 RMK A01 T01890187  RH  099%=      5-min Rain = 0
KVP1 251234Z 16007KT 19/19 A3002 RMK A01 T01890187  RH  099%=      5-min Rain = 0
KVP1 251235Z 16006KT 19/19 A3002 RMK A01 T01890187  RH  099%=      5-min Rain = 0
KVP1 251236Z 16006KT 19/19 A3002 RMK A01 T01890187  RH  099%=      5-min Rain = 0
KVP1 251237Z 17006KT 19/19 A3002 RMK A01 T01890187  RH  099%=      5-min Rain = 0
KVP1 251238Z 16006KT 19/19 A3002 RMK A01 T01890187  RH  099%=      5-min Rain = 0
KVP1 251239Z 16007KT 19/19 A3002 RMK A01 T01890187  RH  099%=      5-min Rain = 0
KVP1 251240Z 16008KT 19/19 A3002 RMK A01 T01890187  RH  099%=      5-min Rain = 0
KVP1 251241Z 16008KT 19/19 A3002 RMK A01 T01890187  RH  099%=      5-min Rain = 0
KVP1 251242Z 17008KT 19/19 A3002 RMK A01 T01890187  RH  098%=      5-min Rain = 0
KVP1 251243Z 16007KT 19/19 A3002 RMK A01 T01890187  RH  098%=      5-min Rain = 0
KVP1 251244Z 16008KT 19/19 A3002 RMK A01 T01890187  RH  098%=      5-min Rain = 0
KVP1 251245Z 16008KT 19/19 A3002 RMK A01 T01900187  RH  098%=      5-min Rain = 0
KVP1 251246Z 15007KT 19/19 A3002 RMK A01 T01900187  RH  099%=      5-min Rain = 0
KVP1 251247Z 16009KT 19/19 A3002 RMK A01 T01900187  RH  098%=      5-min Rain = 0
KVP1 251248Z 16007KT 19/19 A3002 RMK A01 T01900187  RH  098%=      5-min Rain = 0
KVP1 251249Z 16008KT 19/19 A3002 RMK A01 T01900187  RH  098%=      5-min Rain = 0
KVP1 251250Z 17007KT 19/19 A3002 RMK A01 T01900187  RH  098%=      5-min Rain = 0
KVP1 251251Z 17007KT 19/19 A3002 RMK A01 T01900187  RH  098%=      5-min Rain = 0
KVP1 251252Z 16005KT 19/19 A3002 RMK A01 T01900188  RH  098%=      5-min Rain = 0
KVP1 251253Z 17006KT 19/19 A3002 RMK A01 T01900188  RH  098%=      5-min Rain = 0
KVP1 251254Z 17009KT 19/19 A3002 RMK A01 T01900188  RH  098%=      5-min Rain = 0
KVP1 251255Z 16008KT 19/19 A3002 RMK A01 T01900187  RH  098%=      5-min Rain = 0
KVP1 251256Z 16007KT 19/19 A3002 RMK A01 T01910188  RH  098%=      5-min Rain = 0
KVP1 251257Z 17008KT 19/19 A3002 RMK A01 T01910188  RH  098%=      5-min Rain = 0
KVP1 251258Z 17008KT 19/19 A3002 RMK A01 T01920189  RH  098%=      5-min Rain = 0
KVP1 251259Z 16006KT 19/19 A3002 RMK A01 T01910188  RH  098%=      5-min Rain = 0
KVP1 251300Z 17007KT 19/19 A3002 RMK A01 T01920188  RH  098%=      5-min Rain = 0
KVP1 251301Z 17008KT 19/19 A3002 RMK A01 T01920188  RH  098%=      5-min Rain = 0
KVP1 251302Z 16010KT 19/19 A3002 RMK A01 T01920188  RH  098%=      5-min Rain = 0
KVP1 251303Z 15009KT 19/19 A3002 RMK A01 T01920188  RH  098%=      5-min Rain = 0
KVP1 251304Z 17009KT 19/19 A3002 RMK A01 T01930188  RH  097%=      5-min Rain = 0
KVP1 251305Z 17007KT 19/19 A3002 RMK A01 T01930188  RH  097%=      5-min Rain = 0
KVP1 251306Z 16010KT 19/19 A3002 RMK A01 T01930189  RH  097%=      5-min Rain = 0
KVP1 251307Z 17010KT 19/19 A3002 RMK A01 T01930189  RH  097%=      5-min Rain = 0
KVP1 251308Z 17009KT 19/19 A3002 RMK A01 T01940189  RH  097%=      5-min Rain = 0
KVP1 251309Z 16008KT 19/19 A3002 RMK A01 T01940189  RH  097%=      5-min Rain = 0
KVP1 251310Z 16009KT 19/19 A3002 RMK A01 T01940189  RH  097%=      5-min Rain = 0
KVP1 251311Z 17010KT 19/19 A3002 RMK A01 T01940189  RH  097%=      5-min Rain = 0
KVP1 251312Z 16010KT 19/19 A3002 RMK A01 T01940188  RH  097%=      5-min Rain = 0
KVP1 251313Z 16009KT 19/19 A3002 RMK A01 T01940188  RH  096%=      5-min Rain = 0
KVP1 251314Z 17008KT 19/19 A3002 RMK A01 T01940188  RH  096%=      5-min Rain = 0
KVP1 251315Z 17008KT 19/19 A3002 RMK A01 T01940188  RH  097%=      5-min Rain = 0
KVP1 251316Z 17008KT 19/19 A3003 RMK A01 T01940189  RH  097%=      5-min Rain = 0
KVP1 251317Z 17010KT 19/19 A3003 RMK A01 T01940189  RH  097%=      5-min Rain = 0
KVP1 251318Z 17008KT 19/19 A3003 RMK A01 T01940189  RH  097%=      5-min Rain = 0
KVP1 251319Z 16009KT 19/19 A3003 RMK A01 T01940189  RH  097%=      5-min Rain = 0
KVP1 251320Z 17009KT 19/19 A3003 RMK A01 T01930189  RH  097%=      5-min Rain = 0
KVP1 251321Z 17011KT 19/19 A3003 RMK A01 T01930189  RH  097%=      5-min Rain = 0
KVP1 251322Z 17011KT 19/19 A3003 RMK A01 T01940189  RH  097%=      5-min Rain = 0
KVP1 251323Z 17010KT 19/19 A3003 RMK A01 T01930189  RH  097%=      5-min Rain = 0
KVP1 251324Z 17012KT 19/19 A3003 RMK A01 T01940189  RH  097%=      5-min Rain = 0
KVP1 251325Z 17010KT 19/19 A3003 RMK A01 T01940189  RH  097%=      5-min Rain = 0
KVP1 251326Z 17011KT 19/19 A3003 RMK A01 T01930189  RH  097%=      5-min Rain = 0
KVP1 251327Z 17010KT 19/19 A3003 RMK A01 T01930189  RH  097%=      5-min Rain = 0
KVP1 251328Z 17010KT 19/19 A3003 RMK A01 T01930189  RH  097%=      5-min Rain = 0
KVP1 251329Z 17009KT 19/19 A3003 RMK A01 T01940189  RH  097%=      5-min Rain = 0
KVP1 251330Z 17012KT 19/19 A3003 RMK A01 T01930189  RH  097%=      5-min Rain = 0
KVP1 251331Z 17011KT 19/19 A3003 RMK A01 T01930189  RH  097%=      5-min Rain = 0
KVP1 251332Z 17011KT 19/19 A3003 RMK A01 T01930189  RH  098%=      5-min Rain = 0
KVP1 251333Z 17012KT 19/19 A3003 RMK A01 T01930189  RH  098%=      5-min Rain = 0
KVP1 251334Z 16009KT 19/19 A3003 RMK A01 T01940190  RH  098%=      5-min Rain = 0
KVP1 251335Z 17010KT 19/19 A3003 RMK A01 T01930190  RH  098%=      5-min Rain = 0
KVP1 251336Z 17009KT 19/19 A3003 RMK A01 T01930190  RH  098%=      5-min Rain = 0
KVP1 251337Z 17009KT 19/19 A3004 RMK A01 T01930190  RH  098%=      5-min Rain = 0
KVP1 251338Z 18010KT 19/19 A3004 RMK A01 T01930190  RH  098%=      5-min Rain = 0
KVP1 251339Z 17010KT 19/19 A3004 RMK A01 T01930190  RH  098%=      5-min Rain = 0
KVP1 251340Z 17011KT 19/19 A3004 RMK A01 T01930190  RH  098%=      5-min Rain = 0
KVP1 251341Z 17010KT 19/19 A3004 RMK A01 T01930190  RH  098%=      5-min Rain = 0
KVP1 251342Z 17010KT 19/19 A3004 RMK A01 T01930190  RH  098%=      5-min Rain = 0
KVP1 251343Z 17012KT 19/19 A3004 RMK A01 T01930190  RH  098%=      5-min Rain = 0
KVP1 251344Z 18011KT 19/19 A3004 RMK A01 T01930190  RH  098%=      5-min Rain = 0
KVP1 251345Z 18013KT 19/19 A3004 RMK A01 T01930190  RH  098%=      5-min Rain = 0
KVP1 251346Z 18011KT 19/19 A3004 RMK A01 T01940191  RH  098%=      5-min Rain = 0
KVP1 251347Z 18011KT 19/19 A3004 RMK A01 T01940190  RH  098%=      5-min Rain = 0
KVP1 251348Z 17009KT 19/19 A3004 RMK A01 T01940191  RH  098%=      5-min Rain = 0
KVP1 251349Z 17009KT 19/19 A3004 RMK A01 T01940191  RH  098%=      5-min Rain = 0
KVP1 251350Z 17009KT 19/19 A3004 RMK A01 T01940191  RH  098%=      5-min Rain = 0
KVP1 251351Z 17010KT 20/19 A3004 RMK A01 T01950192  RH  098%=      5-min Rain = 0
KVP1 251352Z 18012KT 20/19 A3004 RMK A01 T01960192  RH  098%=      5-min Rain = 0
KVP1 251353Z 18011KT 20/19 A3004 RMK A01 T01950191  RH  097%=      5-min Rain = 0
KVP1 251354Z 18011KT 20/19 A3004 RMK A01 T01960192  RH  097%=      5-min Rain = 0
KVP1 251355Z 18010KT 20/19 A3004 RMK A01 T01970192  RH  097%=      5-min Rain = 0
KVP1 251356Z 18011KT 20/19 A3004 RMK A01 T01970192  RH  097%=      5-min Rain = 0
KVP1 251357Z 18012KT 20/19 A3004 RMK A01 T01970192  RH  096%=      5-min Rain = 0
KVP1 251358Z 18012KT 20/19 A3004 RMK A01 T01970191  RH  096%=      5-min Rain = 0
KVP1 251359Z 17010KT 20/19 A3004 RMK A01 T01970191  RH  096%=      5-min Rain = 0
KVP1 251400Z 17010KT 20/19 A3004 RMK A01 T01980192  RH  096%=      5-min Rain = 0
KVP1 251401Z 17012KT 20/19 A3004 RMK A01 T01970191  RH  096%=      5-min Rain = 0
KVP1 251402Z 17011KT 20/19 A3004 RMK A01 T01980191  RH  096%=      5-min Rain = 0
KVP1 251403Z 17009KT 20/19 A3004 RMK A01 T01970191  RH  096%=      5-min Rain = 0
KVP1 251404Z 17011KT 20/19 A3004 RMK A01 T01980192  RH  097%=      5-min Rain = 0
KVP1 251405Z 18011KT 20/19 A3004 RMK A01 T01980192  RH  096%=      5-min Rain = 0
KVP1 251406Z 17011KT 20/19 A3004 RMK A01 T01980191  RH  096%=      5-min Rain = 0
KVP1 251407Z 18011KT 20/19 A3004 RMK A01 T01980192  RH  096%=      5-min Rain = 0
KVP1 251408Z 18011KT 20/19 A3004 RMK A01 T01980192  RH  096%=      5-min Rain = 0
KVP1 251409Z 18011KT 20/19 A3004 RMK A01 T01980192  RH  096%=      5-min Rain = 0
KVP1 251410Z 18009KT 20/19 A3004 RMK A01 T01990192  RH  096%=      5-min Rain = 0
KVP1 251411Z 18011KT 20/19 A3004 RMK A01 T01990192  RH  096%=      5-min Rain = 0
KVP1 251412Z 18011KT 20/19 A3004 RMK A01 T01990192  RH  096%=      5-min Rain = 0
KVP1 251413Z 18010KT 20/19 A3004 RMK A01 T01990192  RH  096%=      5-min Rain = 0
KVP1 251414Z 18009KT 20/19 A3004 RMK A01 T01990193  RH  096%=      5-min Rain = 0
KVP1 251415Z 18011KT 20/19 A3004 RMK A01 T02000193  RH  096%=      5-min Rain = 0
KVP1 251416Z 17011KT 20/19 A3004 RMK A01 T02000193  RH  095%=      5-min Rain = 0
KVP1 251417Z 17010KT 20/19 A3004 RMK A01 T02000192  RH  095%=      5-min Rain = 0
KVP1 251418Z 18011KT 20/19 A3004 RMK A01 T02000192  RH  095%=      5-min Rain = 0
KVP1 251419Z 18010KT 20/19 A3004 RMK A01 T02010193  RH  095%=      5-min Rain = 0
KVP1 251420Z 17011KT 20/19 A3004 RMK A01 T02010193  RH  095%=      5-min Rain = 0
KVP1 251421Z 18010KT 20/19 A3004 RMK A01 T02010193  RH  095%=      5-min Rain = 0
KVP1 251422Z 18010KT 20/19 A3004 RMK A01 T02010192  RH  095%=      5-min Rain = 0
KVP1 251423Z 18010KT 20/19 A3004 RMK A01 T02010193  RH  095%=      5-min Rain = 0
KVP1 251424Z 18011KT 20/19 A3004 RMK A01 T02020193  RH  095%=      5-min Rain = 0
KVP1 251425Z 18011KT 20/19 A3004 RMK A01 T02020192  RH  094%=      5-min Rain = 0
KVP1 251426Z 18012KT 20/19 A3004 RMK A01 T02020193  RH  095%=      5-min Rain = 0
KVP1 251427Z 18011KT 20/19 A3004 RMK A01 T02020193  RH  095%=      5-min Rain = 0
KVP1 251428Z 18013KT 20/19 A3004 RMK A01 T02030193  RH  094%=      5-min Rain = 0
KVP1 251429Z 18010KT 20/19 A3004 RMK A01 T02030193  RH  094%=      5-min Rain = 0
KVP1 251430Z 18011KT 20/19 A3004 RMK A01 T02040194  RH  094%=      5-min Rain = 0
KVP1 251431Z 18010KT 20/19 A3004 RMK A01 T02040194  RH  094%=      5-min Rain = 0
KVP1 251432Z 18011KT 20/19 A3004 RMK A01 T02040194  RH  094%=      5-min Rain = 0
KVP1 251433Z 18011KT 21/20 A3004 RMK A01 T02050195  RH  094%=      5-min Rain = 0
KVP1 251434Z 18013KT 21/20 A3004 RMK A01 T02050195  RH  093%=      5-min Rain = 0
KVP1 251435Z 18014KT 21/19 A3004 RMK A01 T02060194  RH  093%=      5-min Rain = 0
KVP1 251436Z 18014KT 21/19 A3004 RMK A01 T02060194  RH  093%=      5-min Rain = 0
KVP1 251437Z 18014KT 21/19 A3004 RMK A01 T02060194  RH  093%=      5-min Rain = 0
KVP1 251438Z 18014KT 21/19 A3004 RMK A01 T02060194  RH  093%=      5-min Rain = 0
KVP1 251439Z 18014KT 21/19 A3004 RMK A01 T02060194  RH  093%=      5-min Rain = 0
KVP1 251440Z 18013KT 21/19 A3004 RMK A01 T02060194  RH  093%=      5-min Rain = 0
KVP1 251441Z 19012KT 21/20 A3004 RMK A01 T02060195  RH  093%=      5-min Rain = 0
KVP1 251442Z 18012KT 21/19 A3004 RMK A01 T02060194  RH  093%=      5-min Rain = 0
KVP1 251443Z 18015KT 21/19 A3004 RMK A01 T02060194  RH  092%=      5-min Rain = 0
KVP1 251444Z 18015KT 21/19 A3004 RMK A01 T02060193  RH  092%=      5-min Rain = 0
KVP1 251445Z 19016KT 21/19 A3004 RMK A01 T02070194  RH  092%=      5-min Rain = 0
KVP1 251446Z 19013KT 21/19 A3004 RMK A01 T02070194  RH  092%=      5-min Rain = 0
KVP1 251447Z 19012KT 21/19 A3004 RMK A01 T02080194  RH  092%=      5-min Rain = 0
KVP1 251448Z 18011KT 21/20 A3004 RMK A01 T02080195  RH  092%=      5-min Rain = 0
KVP1 251449Z 18013KT 21/20 A3004 RMK A01 T02090195  RH  092%=      5-min Rain = 0
KVP1 251450Z 18013KT 21/19 A3004 RMK A01 T02080194  RH  091%=      5-min Rain = 0
KVP1 251451Z 18012KT 21/19 A3004 RMK A01 T02090194  RH  091%=      5-min Rain = 0
KVP1 251452Z 18012KT 21/19 A3004 RMK A01 T02090194  RH  091%=      5-min Rain = 0
KVP1 251453Z 19014KT 21/19 A3004 RMK A01 T02090194  RH  091%=      5-min Rain = 0
KVP1 251454Z 19016KT 21/19 A3004 RMK A01 T02090194  RH  091%=      5-min Rain = 0
KVP1 251455Z 19017KT 21/19 A3004 RMK A01 T02100194  RH  091%=      5-min Rain = 0
KVP1 251456Z 19014KT 21/19 A3004 RMK A01 T02090194  RH  091%=      5-min Rain = 0
KVP1 251457Z 19014KT 21/19 A3004 RMK A01 T02100194  RH  090%=      5-min Rain = 0
KVP1 251458Z 19014KT 21/19 A3004 RMK A01 T02100193  RH  090%=      5-min Rain = 0
KVP1 251459Z 19014KT 21/19 A3004 RMK A01 T02100194  RH  090%=      5-min Rain = 0
KVP1 251500Z 19012KT 21/19 A3004 RMK A01 T02100194  RH  091%=      5-min Rain = 0
KVP1 251501Z 19014KT 21/20 A3004 RMK A01 T02110195  RH  090%=      5-min Rain = 0
KVP1 251502Z 18015KT 21/19 A3004 RMK A01 T02110194  RH  090%=      5-min Rain = 0
KVP1 251503Z 18016KT 21/19 A3004 RMK A01 T02110194  RH  090%=      5-min Rain = 0
KVP1 251504Z 19015KT 21/19 A3004 RMK A01 T02110194  RH  090%=      5-min Rain = 0
KVP1 251505Z 19015KT 21/19 A3004 RMK A01 T02120194  RH  090%=      5-min Rain = 0
KVP1 251506Z 19016KT 21/19 A3004 RMK A01 T02120194  RH  089%=      5-min Rain = 0
KVP1 251507Z 18014KT 21/19 A3004 RMK A01 T02120194  RH  089%=      5-min Rain = 0
KVP1 251508Z 18013KT 21/20 A3004 RMK A01 T02120195  RH  090%=      5-min Rain = 0
KVP1 251509Z 18012G17KT 21/20 A3004 RMK A01 T02120195  RH  090%=      5-min Rain = 0
KVP1 251510Z 18015KT 21/19 A3004 RMK A01 T02130194  RH  089%=      5-min Rain = 0
KVP1 251511Z 18013KT 21/19 A3004 RMK A01 T02130194  RH  089%=      5-min Rain = 0
KVP1 251512Z 19013KT 21/19 A3004 RMK A01 T02130194  RH  089%=      5-min Rain = 0
KVP1 251513Z 18013KT 21/20 A3004 RMK A01 T02130195  RH  089%=      5-min Rain = 0
KVP1 251514Z 18014KT 21/19 A3004 RMK A01 T02130194  RH  089%=      5-min Rain = 0
KVP1 251515Z 18015KT 21/19 A3004 RMK A01 T02130194  RH  089%=      5-min Rain = 0
KVP1 251516Z 18013KT 21/20 A3004 RMK A01 T02120195  RH  090%=      5-min Rain = 0
KVP1 251517Z 18013KT 21/20 A3004 RMK A01 T02120195  RH  090%=      5-min Rain = 0
KVP1 251518Z 19011KT 21/20 A3004 RMK A01 T02120195  RH  090%=      5-min Rain = 0
KVP1 251519Z 18013KT 21/20 A3004 RMK A01 T02120195  RH  090%=      5-min Rain = 0
KVP1 251520Z 18015KT 21/19 A3004 RMK A01 T02120194  RH  090%=      5-min Rain = 0
KVP1 251521Z 18012KT 21/19 A3004 RMK A01 T02110194  RH  090%=      5-min Rain = 0
KVP1 251522Z 17014KT 21/19 A3004 RMK A01 T02110194  RH  090%=      5-min Rain = 0
KVP1 251523Z 18014KT 21/19 A3004 RMK A01 T02110194  RH  090%=      5-min Rain = 0
KVP1 251524Z 18015KT 21/19 A3004 RMK A01 T02100193  RH  090%=      5-min Rain = 0
KVP1 251525Z 19014KT 21/19 A3004 RMK A01 T02100193  RH  090%=      5-min Rain = 0
KVP1 251526Z 19014KT 21/19 A3004 RMK A01 T02100194  RH  090%=      5-min Rain = 0
KVP1 251527Z 18012KT 21/19 A3004 RMK A01 T02100194  RH  091%=      5-min Rain = 0
KVP1 251528Z 18012KT 21/20 A3004 RMK A01 T02100195  RH  091%=      5-min Rain = 0
KVP1 251529Z 18013KT 21/19 A3004 RMK A01 T02110194  RH  090%=      5-min Rain = 0
KVP1 251530Z 18012KT 21/19 A3004 RMK A01 T02110194  RH  090%=      5-min Rain = 0
KVP1 251531Z 18010KT 21/20 A3004 RMK A01 T02110195  RH  090%=      5-min Rain = 0
KVP1 251532Z 17012KT 21/20 A3004 RMK A01 T02110195  RH  090%=      5-min Rain = 0
KVP1 251533Z 18013KT 21/19 A3004 RMK A01 T02110194  RH  090%=      5-min Rain = 0
KVP1 251534Z 17013KT 21/19 A3004 RMK A01 T02100194  RH  090%=      5-min Rain = 0
KVP1 251535Z 17015KT 21/19 A3004 RMK A01 T02100194  RH  091%=      5-min Rain = 0
KVP1 251536Z 18014KT 21/19 A3004 RMK A01 T02100194  RH  091%=      5-min Rain = 0
KVP1 251537Z 18014KT 21/19 A3004 RMK A01 T02100194  RH  091%=      5-min Rain = 0
KVP1 251538Z 17014KT 21/19 A3004 RMK A01 T02090194  RH  091%=      5-min Rain = 0
KVP1 251539Z 18013KT 21/19 A3004 RMK A01 T02090194  RH  091%=      5-min Rain = 0
KVP1 251540Z 18015KT 21/19 A3004 RMK A01 T02090194  RH  091%=      5-min Rain = 0
KVP1 251541Z 17016KT 21/19 A3004 RMK A01 T02090193  RH  091%=      5-min Rain = 0
KVP1 251542Z 18015KT 21/19 A3004 RMK A01 T02080193  RH  091%=      5-min Rain = 0
KVP1 251543Z 18015KT 21/19 A3004 RMK A01 T02090194  RH  091%=      5-min Rain = 0
KVP1 251544Z 18014KT 21/19 A3004 RMK A01 T02090194  RH  091%=      5-min Rain = 0
KVP1 251545Z 18015KT 21/19 A3004 RMK A01 T02090194  RH  091%=      5-min Rain = 0
KVP1 251546Z 18017KT 21/19 A3004 RMK A01 T02090194  RH  091%=      5-min Rain = 0
KVP1 251547Z 17017KT 21/19 A3004 RMK A01 T02090193  RH  091%=      5-min Rain = 0
KVP1 251548Z 17015KT 21/19 A3004 RMK A01 T02090194  RH  091%=      5-min Rain = 0
KVP1 251549Z 17013KT 21/19 A3004 RMK A01 T02100194  RH  091%=      5-min Rain = 0
KVP1 251550Z 18015KT 21/19 A3004 RMK A01 T02100194  RH  091%=      5-min Rain = 0
KVP1 251551Z 18013KT 21/19 A3004 RMK A01 T02110194  RH  090%=      5-min Rain = 0
KVP1 251552Z 17015KT 21/20 A3004 RMK A01 T02110195  RH  090%=      5-min Rain = 0
KVP1 251553Z 18015G20KT 21/19 A3004 RMK A01 T02110194  RH  090%=      5-min Rain = 0
KVP1 251554Z 18015KT 21/19 A3004 RMK A01 T02110194  RH  090%=      5-min Rain = 0
KVP1 251555Z 18013KT 21/20 A3004 RMK A01 T02110195  RH  090%=      5-min Rain = 0
KVP1 251556Z 17013KT 21/20 A3004 RMK A01 T02120196  RH  090%=      5-min Rain = 0
KVP1 251557Z 18013KT 21/20 A3004 RMK A01 T02110196  RH  091%=      5-min Rain = 0
KVP1 251558Z 17013KT 21/20 A3004 RMK A01 T02110196  RH  091%=      5-min Rain = 0
KVP1 251559Z 17013KT 21/20 A3004 RMK A01 T02110196  RH  091%=      5-min Rain = 0
KVP1 251600Z 18013KT 21/20 A3004 RMK A01 T02110196  RH  091%=      5-min Rain = 0
KVP1 251601Z 18014KT 21/20 A3004 RMK A01 T02100196  RH  091%=      5-min Rain = 0
KVP1 251602Z 18012KT 21/20 A3004 RMK A01 T02100196  RH  092%=      5-min Rain = 0
KVP1 251603Z 17014KT 21/20 A3004 RMK A01 T02110196  RH  091%=      5-min Rain = 0
KVP1 251604Z 17015KT 21/20 A3004 RMK A01 T02110195  RH  091%=      5-min Rain = 0
KVP1 251605Z 17012KT 21/19 A3004 RMK A01 T02100194  RH  091%=      5-min Rain = 0
KVP1 251606Z 17013KT 21/20 A3004 RMK A01 T02090195  RH  091%=      5-min Rain = 0
KVP1 251607Z 18010KT 21/20 A3004 RMK A01 T02090196  RH  092%=      5-min Rain = 0
KVP1 251608Z 17012KT 21/20 A3004 RMK A01 T02090196  RH  092%=      5-min Rain = 0
KVP1 251609Z 18016KT 21/20 A3004 RMK A01 T02090196  RH  092%=      5-min Rain = 0
KVP1 251610Z 17014KT 21/20 A3004 RMK A01 T02100195  RH  091%=      5-min Rain = 0
KVP1 251611Z 17015KT 21/20 A3004 RMK A01 T02100196  RH  091%=      5-min Rain = 0
KVP1 251612Z 17015KT 21/20 A3004 RMK A01 T02110196  RH  091%=      5-min Rain = 0
KVP1 251613Z 17015KT 21/20 A3004 RMK A01 T02120196  RH  090%=      5-min Rain = 0
KVP1 251614Z 17015KT 21/20 A3004 RMK A01 T02120195  RH  090%=      5-min Rain = 0
KVP1 251615Z 18013KT 21/20 A3004 RMK A01 T02120196  RH  090%=      5-min Rain = 0
KVP1 251616Z 17014KT 21/20 A3004 RMK A01 T02120196  RH  091%=      5-min Rain = 0
KVP1 251617Z 18013KT 21/20 A3004 RMK A01 T02120196  RH  091%=      5-min Rain = 0
KVP1 251618Z 17013KT 21/20 A3004 RMK A01 T02120197  RH  091%=      5-min Rain = 0
KVP1 251619Z 17013KT 21/20 A3004 RMK A01 T02120196  RH  091%=      5-min Rain = 0
KVP1 251620Z 17013KT 21/20 A3004 RMK A01 T02120197  RH  091%=      5-min Rain = 0
KVP1 251621Z 17012KT 21/20 A3004 RMK A01 T02120197  RH  091%=      5-min Rain = 0
KVP1 251622Z 17014KT 21/20 A3004 RMK A01 T02120197  RH  091%=      5-min Rain = 0
KVP1 251623Z 17014KT 21/20 A3004 RMK A01 T02130196  RH  090%=      5-min Rain = 0
KVP1 251624Z 17015KT 21/20 A3004 RMK A01 T02130196  RH  090%=      5-min Rain = 0
KVP1 251625Z 17014KT 21/20 A3004 RMK A01 T02120196  RH  091%=      5-min Rain = 0
KVP1 251626Z 17014KT 21/20 A3004 RMK A01 T02110196  RH  091%=      5-min Rain = 0
KVP1 251627Z 17012KT 21/20 A3004 RMK A01 T02110196  RH  091%=      5-min Rain = 0
KVP1 251628Z 17012KT 21/20 A3004 RMK A01 T02110197  RH  092%=      5-min Rain = 0
KVP1 251629Z 17012KT 21/20 A3004 RMK A01 T02110196  RH  092%=      5-min Rain = 0
KVP1 251630Z 17013KT 21/20 A3004 RMK A01 T02110197  RH  092%=      5-min Rain = 0
KVP1 251631Z 18015KT 21/20 A3004 RMK A01 T02110197  RH  092%=      5-min Rain = 0
KVP1 251632Z 18012KT 21/20 A3004 RMK A01 T02110197  RH  092%=      5-min Rain = 0
KVP1 251633Z 17011KT 21/20 A3004 RMK A01 T02110197  RH  092%=      5-min Rain = 0
KVP1 251634Z 17011KT 21/20 A3004 RMK A01 T02110198  RH  092%=      5-min Rain = 0
KVP1 251635Z 17010KT 21/20 A3004 RMK A01 T02100197  RH  092%=      5-min Rain = 0
KVP1 251636Z 16014KT 21/20 A3004 RMK A01 T02100197  RH  092%=      5-min Rain = 0
KVP1 251637Z 16011KT 21/20 A3004 RMK A01 T02100197  RH  092%=      5-min Rain = 0
KVP1 251638Z 17011KT 21/20 A3004 RMK A01 T02110197  RH  092%=      5-min Rain = 0
KVP1 251639Z 17014KT 21/20 A3004 RMK A01 T02110197  RH  091%=      5-min Rain = 0
KVP1 251640Z 17013KT 21/20 A3004 RMK A01 T02120198  RH  091%=      5-min Rain = 0
KVP1 251641Z 17014KT 21/20 A3004 RMK A01 T02130198  RH  091%=      5-min Rain = 0
KVP1 251642Z 17013KT 22/20 A3004 RMK A01 T02150199  RH  091%=      5-min Rain = 0
KVP1 251643Z 17013KT 22/20 A3004 RMK A01 T02150198  RH  090%=      5-min Rain = 0
KVP1 251644Z 17013KT 22/20 A3004 RMK A01 T02150199  RH  090%=      5-min Rain = 0
KVP1 251645Z 17014KT 22/20 A3004 RMK A01 T02150199  RH  090%=      5-min Rain = 0
KVP1 251646Z 16016KT 22/20 A3004 RMK A01 T02150197  RH  090%=      5-min Rain = 0
KVP1 251647Z 16011KT 22/20 A3004 RMK A01 T02150198  RH  090%=      5-min Rain = 0
KVP1 251648Z 17014KT 22/20 A3004 RMK A01 T02160198  RH  090%=      5-min Rain = 0
KVP1 251649Z 17013KT 22/20 A3004 RMK A01 T02160198  RH  090%=      5-min Rain = 0
KVP1 251650Z 16015KT 22/20 A3004 RMK A01 T02150198  RH  090%=      5-min Rain = 0
KVP1 251651Z 16014KT 21/20 A3004 RMK A01 T02140198  RH  091%=      5-min Rain = 0
KVP1 251652Z 17014KT 21/20 A3004 RMK A01 T02130198  RH  091%=      5-min Rain = 0
KVP1 251653Z 18012KT 21/20 A3004 RMK A01 T02130198  RH  091%=      5-min Rain = 0
KVP1 251654Z 18013KT 21/20 A3004 RMK A01 T02140199  RH  091%=      5-min Rain = 0
KVP1 251655Z 17011KT 22/20 A3004 RMK A01 T02150199  RH  091%=      5-min Rain = 0
KVP1 251656Z 17013KT 22/20 A3004 RMK A01 T02160199  RH  090%=      5-min Rain = 0
KVP1 251657Z 17013KT 22/20 A3004 RMK A01 T02160198  RH  089%=      5-min Rain = 0
KVP1 251658Z 17012KT 22/20 A3004 RMK A01 T02170198  RH  089%=      5-min Rain = 0
KVP1 251659Z 16012KT 22/20 A3004 RMK A01 T02170199  RH  090%=      5-min Rain = 0
KVP1 251700Z 17012KT 22/20 A3004 RMK A01 T02170199  RH  089%=      5-min Rain = 0
KVP1 251701Z 17015KT 22/20 A3004 RMK A01 T02170198  RH  089%=      5-min Rain = 0
KVP1 251702Z 17013KT 22/20 A3004 RMK A01 T02170198  RH  089%=      5-min Rain = 0
KVP1 251703Z 17012KT 22/20 A3004 RMK A01 T02170199  RH  089%=      5-min Rain = 0
KVP1 251704Z 17012G17KT 22/20 A3004 RMK A01 T02180200  RH  090%=      5-min Rain = 0
KVP1 251705Z 17012KT 22/20 A3004 RMK A01 T02190199  RH  088%=      5-min Rain = 0
KVP1 251706Z 17013KT 22/20 A3004 RMK A01 T02190198  RH  088%=      5-min Rain = 0
KVP1 251707Z 18014KT 22/20 A3004 RMK A01 T02190198  RH  088%=      5-min Rain = 0
KVP1 251708Z 17011KT 22/20 A3004 RMK A01 T02190199  RH  089%=      5-min Rain = 0
KVP1 251709Z 17010KT 22/20 A3004 RMK A01 T02190200  RH  089%=      5-min Rain = 0
KVP1 251710Z 18011KT 22/20 A3004 RMK A01 T02210201  RH  088%=      5-min Rain = 0
KVP1 251711Z 18013KT 22/20 A3004 RMK A01 T02230200  RH  087%=      5-min Rain = 0
KVP1 251712Z 17015KT 22/20 A3004 RMK A01 T02230199  RH  086%=      5-min Rain = 0
KVP1 251713Z 17014G19KT 22/20 A3004 RMK A01 T02220198  RH  087%=      5-min Rain = 0
KVP1 251714Z 17015KT 22/20 A3004 RMK A01 T02200198  RH  087%=      5-min Rain = 0
KVP1 251715Z 17013KT 22/20 A3004 RMK A01 T02180197  RH  088%=      5-min Rain = 0
KVP1 251716Z 18017KT 22/20 A3004 RMK A01 T02170197  RH  088%=      5-min Rain = 0
KVP1 251717Z 18015KT 22/20 A3004 RMK A01 T02160197  RH  089%=      5-min Rain = 0
KVP1 251718Z 17015KT 22/20 A3004 RMK A01 T02160197  RH  089%=      5-min Rain = 0
KVP1 251719Z 18016KT 22/20 A3004 RMK A01 T02170198  RH  089%=      5-min Rain = 0
KVP1 251720Z 18016KT 22/20 A3004 RMK A01 T02180197  RH  088%=      5-min Rain = 0
KVP1 251721Z 18016KT 22/20 A3004 RMK A01 T02180197  RH  088%=      5-min Rain = 0
KVP1 251722Z 17016KT 22/20 A3004 RMK A01 T02170197  RH  088%=      5-min Rain = 0
KVP1 251723Z 18016G21KT 22/20 A3004 RMK A01 T02190198  RH  088%=      5-min Rain = 0
KVP1 251724Z 18019KT 22/20 A3004 RMK A01 T02210197  RH  087%=      5-min Rain = 0
KVP1 251725Z 18018KT 22/20 A3004 RMK A01 T02220198  RH  086%=      5-min Rain = 0
KVP1 251726Z 18016G21KT 22/20 A3004 RMK A01 T02230198  RH  086%=      5-min Rain = 0
KVP1 251727Z 19018KT 22/20 A3004 RMK A01 T02240199  RH  085%=      5-min Rain = 0
KVP1 251728Z 18015KT 23/20 A3004 RMK A01 T02250198  RH  085%=      5-min Rain = 0
KVP1 251729Z 18018KT 22/20 A3004 RMK A01 T02240198  RH  085%=      5-min Rain = 0
KVP1 251730Z 19020KT 22/20 A3004 RMK A01 T02240197  RH  085%=      5-min Rain = 0
KVP1 251731Z 18018KT 22/20 A3004 RMK A01 T02240197  RH  085%=      5-min Rain = 0
KVP1 251732Z 19015KT 22/20 A3004 RMK A01 T02240199  RH  086%=      5-min Rain = 0
KVP1 251733Z 18016KT 23/20 A3004 RMK A01 T02270200  RH  085%=      5-min Rain = 0
KVP1 251734Z 19018KT 23/20 A3004 RMK A01 T02300199  RH  083%=      5-min Rain = 0
KVP1 251735Z 18013KT 23/20 A3004 RMK A01 T02320202  RH  083%=      5-min Rain = 0
KVP1 251736Z 18017G22KT 23/20 A3004 RMK A01 T02340202  RH  082%=      5-min Rain = 0
KVP1 251737Z 18016G22KT 23/20 A3004 RMK A01 T02340200  RH  081%=      5-min Rain = 0
KVP1 251738Z 17021KT 23/20 A3003 RMK A01 T02340198  RH  080%=      5-min Rain = 0
KVP1 251739Z 18017KT 23/20 A3003 RMK A01 T02320198  RH  081%=      5-min Rain = 0
KVP1 251740Z 18015KT 23/20 A3003 RMK A01 T02320200  RH  082%=      5-min Rain = 0
KVP1 251741Z 18016KT 23/20 A3003 RMK A01 T02330200  RH  081%=      5-min Rain = 0
KVP1 251742Z 18017KT 23/20 A3003 RMK A01 T02330198  RH  081%=      5-min Rain = 0
KVP1 251743Z 18015KT 23/20 A3003 RMK A01 T02320199  RH  082%=      5-min Rain = 0
KVP1 251744Z 19015KT 23/20 A3003 RMK A01 T02340202  RH  082%=      5-min Rain = 0
KVP1 251745Z 18015G20KT 24/20 A3003 RMK A01 T02380203  RH  081%=      5-min Rain = 0
KVP1 251746Z 19019G24KT 24/20 A3003 RMK A01 T02410201  RH  079%=      5-min Rain = 0
KVP1 251747Z 17021KT 24/20 A3003 RMK A01 T02400198  RH  077%=      5-min Rain = 0
KVP1 251748Z 18020KT 24/20 A3003 RMK A01 T02370198  RH  079%=      5-min Rain = 0
KVP1 251749Z 18016G21KT 24/20 A3003 RMK A01 T02380201  RH  080%=      5-min Rain = 0
KVP1 251750Z 17018KT 24/20 A3003 RMK A01 T02410201  RH  078%=      5-min Rain = 0
KVP1 251751Z 18017KT 24/20 A3003 RMK A01 T02400198  RH  078%=      5-min Rain = 0
KVP1 251752Z 19014KT 24/20 A3003 RMK A01 T02370199  RH  079%=      5-min Rain = 0
KVP1 251753Z 19016KT 24/20 A3003 RMK A01 T02370199  RH  079%=      5-min Rain = 0
KVP1 251754Z 19016KT 24/20 A3003 RMK A01 T02350199  RH  080%=      5-min Rain = 0
KVP1 251755Z 18017KT 23/20 A3003 RMK A01 T02330196  RH  080%=      5-min Rain = 0
KVP1 251756Z 18015KT 23/20 A3003 RMK A01 T02310197  RH  081%=      5-min Rain = 0
KVP1 251757Z 18018KT 23/20 A3003 RMK A01 T02310198  RH  082%=      5-min Rain = 0
KVP1 251758Z 19016KT 23/20 A3002 RMK A01 T02320197  RH  081%=      5-min Rain = 0
KVP1 251759Z 18015KT 23/20 A3002 RMK A01 T02320198  RH  081%=      5-min Rain = 0
KVP1 251800Z 19016KT 23/20 A3002 RMK A01 T02310198  RH  082%=      5-min Rain = 0
KVP1 251801Z 19014KT 23/20 A3003 RMK A01 T02320198  RH  081%=      5-min Rain = 0
KVP1 251802Z 19015KT 23/20 A3003 RMK A01 T02330198  RH  081%=      5-min Rain = 0
KVP1 251803Z 19014KT 23/20 A3003 RMK A01 T02330199  RH  081%=      5-min Rain = 0
KVP1 251804Z 19017KT 23/20 A3003 RMK A01 T02340199  RH  080%=      5-min Rain = 0
KVP1 251805Z 18016KT 23/20 A3003 RMK A01 T02340199  RH  081%=      5-min Rain = 0
KVP1 251806Z 18015KT 23/20 A3003 RMK A01 T02340201  RH  081%=      5-min Rain = 0
KVP1 251807Z 17019KT 24/20 A3003 RMK A01 T02360200  RH  080%=      5-min Rain = 0
KVP1 251808Z 18017KT 24/20 A3003 RMK A01 T02350198  RH  080%=      5-min Rain = 0
KVP1 251809Z 19019KT 23/20 A3003 RMK A01 T02330198  RH  081%=      5-min Rain = 0
KVP1 251810Z 18019KT 23/20 A3003 RMK A01 T02320197  RH  081%=      5-min Rain = 0
KVP1 251811Z 18018KT 23/20 A3003 RMK A01 T02320197  RH  081%=      5-min Rain = 0
KVP1 251812Z 18018KT 24/20 A3003 RMK A01 T02350199  RH  080%=      5-min Rain = 0
KVP1 251813Z 17019KT 24/20 A3003 RMK A01 T02370198  RH  079%=      5-min Rain = 0
KVP1 251814Z 18019KT 24/20 A3003 RMK A01 T02360197  RH  079%=      5-min Rain = 0
KVP1 251815Z 18019G24KT 24/20 A3003 RMK A01 T02350198  RH  080%=      5-min Rain = 0
KVP1 251816Z 18018KT 24/20 A3003 RMK A01 T02350198  RH  080%=      5-min Rain = 0
KVP1 251817Z 18016KT 24/20 A3003 RMK A01 T02350198  RH  079%=      5-min Rain = 0
KVP1 251818Z 18016KT 24/20 A3003 RMK A01 T02350198  RH  079%=      5-min Rain = 0
KVP1 251819Z 18018KT 24/20 A3003 RMK A01 T02350198  RH  080%=      5-min Rain = 0
KVP1 251820Z 19017KT 23/20 A3003 RMK A01 T02340197  RH  080%=      5-min Rain = 0
KVP1 251821Z 17015KT 23/20 A3003 RMK A01 T02330198  RH  081%=      5-min Rain = 0
KVP1 251822Z 17017G23KT 23/20 A3003 RMK A01 T02340199  RH  081%=      5-min Rain = 0
KVP1 251823Z 18021KT 23/20 A3003 RMK A01 T02340197  RH  080%=      5-min Rain = 0
KVP1 251824Z 18021KT 23/20 A3003 RMK A01 T02320196  RH  080%=      5-min Rain = 0
KVP1 251825Z 18018KT 23/20 A3003 RMK A01 T02300196  RH  081%=      5-min Rain = 0
KVP1 251826Z 18017KT 23/20 A3003 RMK A01 T02290197  RH  082%=      5-min Rain = 0
KVP1 251827Z 18019KT 23/20 A3002 RMK A01 T02300195  RH  081%=      5-min Rain = 0
KVP1 251828Z 18020KT 23/20 A3002 RMK A01 T02300196  RH  081%=      5-min Rain = 0
KVP1 251829Z 18017KT 23/20 A3002 RMK A01 T02300195  RH  081%=      5-min Rain = 0
KVP1 251830Z 17019KT 23/20 A3002 RMK A01 T02310196  RH  081%=      5-min Rain = 0
KVP1 251831Z 18020KT 23/20 A3002 RMK A01 T02310195  RH  080%=      5-min Rain = 0
KVP1 251832Z 18019KT 23/20 A3002 RMK A01 T02310196  RH  081%=      5-min Rain = 0
KVP1 251833Z 19016KT 23/20 A3002 RMK A01 T02300196  RH  081%=      5-min Rain = 0
KVP1 251834Z 17015KT 23/20 A3002 RMK A01 T02300197  RH  082%=      5-min Rain = 0
KVP1 251835Z 17018KT 23/20 A3002 RMK A01 T02300197  RH  082%=      5-min Rain = 0
KVP1 251836Z 17018KT 23/20 A3002 RMK A01 T02290195  RH  081%=      5-min Rain = 0
KVP1 251837Z 18020KT 23/19 A3001 RMK A01 T02280194  RH  081%=      5-min Rain = 0
KVP1 251838Z 18016G22KT 23/19 A3001 RMK A01 T02270194  RH  082%=      5-min Rain = 0
KVP1 251839Z 18016KT 23/20 A3001 RMK A01 T02260195  RH  082%=      5-min Rain = 0
KVP1 251840Z 18017KT 23/20 A3001 RMK A01 T02260195  RH  082%=      5-min Rain = 0
KVP1 251841Z 18018KT 23/20 A3001 RMK A01 T02260195  RH  083%=      5-min Rain = 0
KVP1 251842Z 18016KT 23/19 A3001 RMK A01 T02260194  RH  082%=      5-min Rain = 0
KVP1 251843Z 18017KT 23/20 A3001 RMK A01 T02260195  RH  083%=      5-min Rain = 0
KVP1 251844Z 17016KT 23/20 A3001 RMK A01 T02250195  RH  083%=      5-min Rain = 0
KVP1 251845Z 17015KT 22/20 A30 RMK A01 T02240196  RH  084%=      5-min Rain = 0
KVP1 251846Z 16016G21KT 22/20 A30 RMK A01 T02240196  RH  085%=      5-min Rain = 0
KVP1 251847Z 16019KT 22/20 A30 RMK A01 T02230196  RH  084%=      5-min Rain = 0
KVP1 251848Z 17019KT 22/20 A30 RMK A01 T02220195  RH  084%=      5-min Rain = 0
KVP1 251849Z 17019KT 22/19 A30 RMK A01 T02210194  RH  085%=      5-min Rain = 0
KVP1 251850Z 17016KT 22/20 A30 RMK A01 T02210195  RH  085%=      5-min Rain = 0
KVP1 251851Z 17018KT 22/20 A30 RMK A01 T02210195  RH  085%=      5-min Rain = 0
KVP1 251852Z 17017G22KT 22/19 A30 RMK A01 T02200194  RH  085%=      5-min Rain = 0
KVP1 251853Z 17015KT 22/19 A30 RMK A01 T02200194  RH  086%=      5-min Rain = 0
KVP1 251854Z 18017G22KT 22/20 A30 RMK A01 T02200195  RH  086%=      5-min Rain = 0
KVP1 251855Z 18018KT 22/19 A30 RMK A01 T02200194  RH  085%=      5-min Rain = 0
KVP1 251856Z 18016KT 22/20 A30 RMK A01 T02200195  RH  086%=      5-min Rain = 0
KVP1 251857Z 17015KT 22/20 A30 RMK A01 T02190195  RH  086%=      5-min Rain = 0
KVP1 251858Z 18015KT 22/20 A30 RMK A01 T02190195  RH  086%=      5-min Rain = 0
KVP1 251859Z 18017KT 22/20 A30 RMK A01 T02190195  RH  086%=      5-min Rain = 0
KVP1 251900Z 17013G18KT 22/20 A30 RMK A01 T02190195  RH  086%=      5-min Rain = 0
KVP1 251901Z 17014KT 22/20 A30 RMK A01 T02180196  RH  087%=      5-min Rain = 0
KVP1 251902Z 17016KT 22/20 A30 RMK A01 T02180195  RH  087%=      5-min Rain = 0
KVP1 251903Z 17016KT 22/20 A30 RMK A01 T02180195  RH  087%=      5-min Rain = 0
KVP1 251904Z 16015KT 22/20 A30 RMK A01 T02180195  RH  087%=      5-min Rain = 0
KVP1 251905Z 16016KT 22/20 A2999 RMK A01 T02180195  RH  087%=      5-min Rain = 0
KVP1 251906Z 16014KT 22/20 A2999 RMK A01 T02180195  RH  087%=      5-min Rain = 0
KVP1 251907Z 16015KT 22/20 A2999 RMK A01 T02180195  RH  087%=      5-min Rain = 0
KVP1 251908Z 16016KT 22/20 A2999 RMK A01 T02180195  RH  087%=      5-min Rain = 0
KVP1 251909Z 16017KT 22/20 A2999 RMK A01 T02180195  RH  087%=      5-min Rain = 0
KVP1 251910Z 16016KT 22/20 A2999 RMK A01 T02170195  RH  087%=      5-min Rain = 0
KVP1 251911Z 17016KT 22/20 A2999 RMK A01 T02170196  RH  087%=      5-min Rain = 0
KVP1 251912Z 17015KT 22/20 A2999 RMK A01 T02170196  RH  088%=      5-min Rain = 0
KVP1 251913Z 16015KT 22/20 A2999 RMK A01 T02170196  RH  088%=      5-min Rain = 0
KVP1 251914Z 16014G19KT 22/20 A2999 RMK A01 T02170196  RH  088%=      5-min Rain = 0
KVP1 251915Z 16013KT 22/20 A2999 RMK A01 T02170196  RH  088%=      5-min Rain = 0
KVP1 251916Z 17013KT 22/20 A2999 RMK A01 T02170196  RH  088%=      5-min Rain = 0
KVP1 251917Z 17015KT 22/20 A30 RMK A01 T02170196  RH  088%=      5-min Rain = 0
KVP1 251918Z 17015KT 22/20 A30 RMK A01 T02170196  RH  088%=      5-min Rain = 0
KVP1 251919Z 17012KT 22/20 A30 RMK A01 T02170196  RH  088%=      5-min Rain = 0
KVP1 251920Z 17013KT 22/20 A30 RMK A01 T02160196  RH  088%=      5-min Rain = 0
KVP1 251921Z 17014KT 22/20 A3001 RMK A01 T02160196  RH  088%=      5-min Rain = 0
KVP1 251922Z 17014KT 22/20 A3001 RMK A01 T02160196  RH  088%=      5-min Rain = 0
KVP1 251923Z 17011KT 22/20 A3001 RMK A01 T02160196  RH  089%=      5-min Rain = 0
KVP1 251924Z 17013KT 22/20 A3001 RMK A01 T02160197  RH  089%=      5-min Rain = 0
KVP1 251925Z 17015KT 22/20 A3001 RMK A01 T02150197  RH  089%=      5-min Rain = 0
KVP1 251926Z 17014KT 22/20 A3001 RMK A01 T02150196  RH  089%=      5-min Rain = 0
KVP1 251927Z 17017KT 22/20 A30 RMK A01 T02150195  RH  089%=      5-min Rain = 0
KVP1 251928Z 17017KT 21/20 A30 RMK A01 T02140195  RH  089%=      5-min Rain = 0
KVP1 251929Z 17018KT 21/19 A30 RMK A01 T02140194  RH  089%=      5-min Rain = 0
KVP1 251930Z 17017KT 21/20 A30 RMK A01 T02130195  RH  089%=      5-min Rain = 0
KVP1 251931Z 17017KT 21/20 A30 RMK A01 T02130195  RH  089%=      5-min Rain = 0
KVP1 251932Z 17014KT 21/20 A30 RMK A01 T02130195  RH  089%=      5-min Rain = 0
KVP1 251933Z 17012KT 21/20 A30 RMK A01 T02130196  RH  090%=      5-min Rain = 0
KVP1 251934Z 17014KT 21/20 A30 RMK A01 T02130196  RH  090%=      5-min Rain = 0
KVP1 251935Z 17017KT 21/20 A30 RMK A01 T02130195  RH  090%=      5-min Rain = 0
KVP1 251936Z 17015G20KT 21/20 A30 RMK A01 T02120195  RH  090%=      5-min Rain = 0
KVP1 251937Z 17017KT 21/20 A30 RMK A01 T02130195  RH  090%=      5-min Rain = 0
KVP1 251938Z 17016G21KT 21/20 A30 RMK A01 T02120195  RH  090%=      5-min Rain = 0
KVP1 251939Z 17017KT 21/20 A30 RMK A01 T02120195  RH  090%=      5-min Rain = 0
KVP1 251940Z 17017KT 21/20 A2999 RMK A01 T02120195  RH  090%=      5-min Rain = 0
KVP1 251941Z 17015KT 21/20 A2999 RMK A01 T02120195  RH  090%=      5-min Rain = 0
KVP1 251942Z 16014KT 21/20 A2999 RMK A01 T02120195  RH  090%=      5-min Rain = 0
KVP1 251943Z 17016KT 21/20 A2999 RMK A01 T02120195  RH  090%=      5-min Rain = 0
KVP1 251944Z 17016KT 21/20 A2998 RMK A01 T02120195  RH  090%=      5-min Rain = 0
KVP1 251945Z 16015KT 21/20 A2998 RMK A01 T02120195  RH  090%=      5-min Rain = 0
KVP1 251946Z 16016KT 21/20 A2998 RMK A01 T02120195  RH  090%=      5-min Rain = 0
KVP1 251947Z 17015KT 21/20 A2998 RMK A01 T02120195  RH  090%=      5-min Rain = 0
KVP1 251948Z 17012KT 21/20 A2999 RMK A01 T02120195  RH  090%=      5-min Rain = 0
KVP1 251949Z 17014KT 21/20 A2999 RMK A01 T02110195  RH  090%=      5-min Rain = 0
KVP1 251950Z 17017KT 21/20 A2999 RMK A01 T02110195  RH  090%=      5-min Rain = 0
KVP1 251951Z 17016KT 21/20 A2999 RMK A01 T02110195  RH  091%=      5-min Rain = 0
KVP1 251952Z 17016KT 21/20 A2999 RMK A01 T02110195  RH  091%=      5-min Rain = 0
KVP1 251953Z 17013KT 21/20 A2999 RMK A01 T02110195  RH  091%=      5-min Rain = 0
KVP1 251954Z 17012KT 21/20 A2999 RMK A01 T02110196  RH  091%=      5-min Rain = 0
KVP1 251955Z 17016KT 21/20 A2999 RMK A01 T02100196  RH  091%=      5-min Rain = 0
KVP1 251956Z 17013KT 21/20 A2999 RMK A01 T02100196  RH  092%=      5-min Rain = 0
KVP1 251957Z 17014KT 21/20 A2998 RMK A01 T02100196  RH  092%=      5-min Rain = 0
KVP1 251958Z 16013KT 21/20 A2998 RMK A01 T02100197  RH  092%=      5-min Rain = 0
KVP1 251959Z 16014KT 21/20 A2998 RMK A01 T02100197  RH  092%=      5-min Rain = 0
KVP1 252000Z 16014KT 21/20 A2998 RMK A01 T02100197  RH  092%=      5-min Rain = 0
KVP1 252001Z 17014KT 21/20 A2998 RMK A01 T02110197  RH  092%=      5-min Rain = 0
KVP1 252002Z 16014KT 21/20 A2997 RMK A01 T02100196  RH  092%=      5-min Rain = 0
KVP1 252003Z 16013KT 21/20 A2997 RMK A01 T02110197  RH  092%=      5-min Rain = 0
KVP1 252004Z 17016KT 21/20 A2997 RMK A01 T02100196  RH  092%=      5-min Rain = 0
KVP1 252005Z 16014KT 21/20 A2997 RMK A01 T02100196  RH  092%=      5-min Rain = 0
KVP1 252006Z 16017KT 21/20 A2997 RMK A01 T02100196  RH  092%=      5-min Rain = 0
KVP1 252007Z 16014KT 21/20 A2997 RMK A01 T02100196  RH  092%=      5-min Rain = 0
KVP1 252008Z 16015KT 21/20 A2997 RMK A01 T02110197  RH  092%=      5-min Rain = 0
KVP1 252009Z 16014KT 21/20 A2997 RMK A01 T02100197  RH  092%=      5-min Rain = 0
KVP1 252010Z 16015KT 21/20 A2998 RMK A01 T02110197  RH  092%=      5-min Rain = 0
KVP1 252011Z 16017KT 21/20 A2998 RMK A01 T02100197  RH  092%=      5-min Rain = 0
KVP1 252012Z 17016KT 21/20 A2998 RMK A01 T02100197  RH  092%=      5-min Rain = 0
KVP1 252013Z 17015KT 21/20 A2999 RMK A01 T02100197  RH  092%=      5-min Rain = 0
KVP1 252014Z 17013KT 21/20 A2999 RMK A01 T02100197  RH  092%=      5-min Rain = 0
KVP1 252015Z 17015KT 21/20 A2999 RMK A01 T02100197  RH  092%=      5-min Rain = 0
KVP1 252016Z 17015G20KT 21/20 A2998 RMK A01 T02100197  RH  092%=      5-min Rain = 0
KVP1 252017Z 17013KT 21/20 A2998 RMK A01 T02100197  RH  092%=      5-min Rain = 0
KVP1 252018Z 18013KT 21/20 A2998 RMK A01 T02100197  RH  092%=      5-min Rain = 0
KVP1 252019Z 18015KT 21/20 A2999 RMK A01 T02090197  RH  093%=      5-min Rain = 0
KVP1 252020Z 18012KT 21/20 A2999 RMK A01 T02090197  RH  093%=      5-min Rain = 0
KVP1 252021Z 18015KT 21/20 A30 RMK A01 T02090197  RH  093%=      5-min Rain = 0
KVP1 252022Z 18017KT 21/20 A3001 RMK A01 T02090197  RH  093%=      5-min Rain = 0
KVP1 252023Z 18015KT 21/20 A3001 RMK A01 T02090198  RH  093%=      5-min Rain = 0
KVP1 252024Z 18013KT 21/20 A3001 RMK A01 T02080198  RH  094%=      5-min Rain = 0
KVP1 252025Z 18015KT 21/20 A30 RMK A01 T02080199  RH  094%=      5-min Rain = 0
KVP1 252026Z 18015KT 21/20 A30 RMK A01 T02070198  RH  095%=      5-min Rain = 0
KVP1 252027Z 18014KT 21/20 A30 RMK A01 T02070199  RH  095%=      5-min Rain = 0
KVP1 252028Z 17013KT 21/20 A30 RMK A01 T02060199  RH  095%=      5-min Rain = 0
KVP1 252029Z 17014KT 21/20 A30 RMK A01 T02060199  RH  096%=      5-min Rain = 0
KVP1 252030Z 18016KT 21/20 A30 RMK A01 T02060199  RH  096%=      5-min Rain = 0
KVP1 252031Z 17013KT 21/20 A3001 RMK A01 T02050200  RH  097%=      5-min Rain = 0.01
KVP1 252032Z 17013KT 21/20 A3001 RMK A01 T02050201  RH  097%=      5-min Rain = 0.01
KVP1 252033Z 18013KT 20/20 A3001 RMK A01 T02040201  RH  098%=      5-min Rain = 0.02
KVP1 252034Z 17014G20KT 20/20 A30 RMK A01 T02030201  RH  098%=      5-min Rain = 0.02
KVP1 252035Z 17016KT 20/20 A30 RMK A01 T02030201  RH  099%=      5-min Rain = 0.03
KVP1 252036Z 17016KT 20/20 A30 RMK A01 T02020202  RH  100%=      5-min Rain = 0.05
KVP1 252037Z 18020KT 20/20 A30 RMK A01 T02010201  RH  100%=      5-min Rain = 0.06
KVP1 252038Z 19019KT 20/18 A2999 RMK A01 T01950182  RH  092%=      5-min Rain = 0.03
KVP1 252039Z 19017KT 19/17 A30 RMK A01 T01910168  RH  086%=      5-min Rain = 0.02
KVP1 252040Z 19017KT 19/17 A3001 RMK A01 T01890167  RH  087%=      5-min Rain = 0
KVP1 252041Z 19019KT 19/17 A3001 RMK A01 T01880170  RH  089%=      5-min Rain = 0.01
KVP1 252042Z 20022KT 19/18 A3002 RMK A01 T01880176  RH  093%=      5-min Rain = 0.02
KVP1 252043Z 20023KT 19/19 A3003 RMK A01 T01900186  RH  098%=      5-min Rain = 0.04
KVP1 252044Z 20024G29KT 19/19 A3004 RMK A01 T01910190  RH  099%=      5-min Rain = 0.02
KVP1 252045Z 20028G33KT 19/18 A3005 RMK A01 T01890183  RH  097%=      5-min Rain = 0.05
KVP1 252046Z 20022G27KT 18/18 A3005 RMK A01 T01840178  RH  096%=      5-min Rain = 0.06
KVP1 252047Z 20019KT 18/17 A3004 RMK A01 T01800173  RH  096%=      5-min Rain = 0.04
KVP1 252048Z 21017KT 18/17 A3003 RMK A01 T01750169  RH  096%=      5-min Rain = 0.03
KVP1 252049Z 21010G15KT 17/17 A3001 RMK A01 T01720165  RH  096%=      5-min Rain = 0.04
KVP1 252050Z 21005KT 17/16 A2999 RMK A01 T01690164  RH  097%=      5-min Rain = 0.03
KVP1 252051Z 18006KT 17/16 A2999 RMK A01 T01680164  RH  097%=      5-min Rain = 0.01
KVP1 252052Z 15008KT 17/16 A2999 RMK A01 T01670164  RH  098%=      5-min Rain = 0
KVP1 252053Z 14010KT 17/17 A2998 RMK A01 T01670165  RH  099%=      5-min Rain = 0.01
KVP1 252054Z 13009KT 17/17 A2998 RMK A01 T01670167  RH  100%=      5-min Rain = 0
KVP1 252055Z 10010KT 17/17 A2996 RMK A01 T01680168  RH  100%=      5-min Rain = 0
KVP1 252056Z 09009KT 17/17 A2996 RMK A01 T01690169  RH  100%=      5-min Rain = 0
KVP1 252057Z 09006KT 17/17 A2996 RMK A01 T01690170  RH  100%=      5-min Rain = 0
KVP1 252058Z 10003KT 17/17 A2997 RMK A01 T01700170  RH  100%=      5-min Rain = 0.01
KVP1 252059Z 14003KT 17/17 A2998 RMK A01 T01710171  RH  100%=      5-min Rain = 0
KVP1 252100Z 18004KT 17/17 A2999 RMK A01 T01720172  RH  100%=      5-min Rain = 0
KVP1 252101Z 20005KT 17/17 A2999 RMK A01 T01720172  RH  100%=      5-min Rain = 0
KVP1 252102Z 19004KT 17/17 A2999 RMK A01 T01720172  RH  100%=      5-min Rain = 0
KVP1 252103Z 18004KT 17/17 A2999 RMK A01 T01720172  RH  100%=      5-min Rain = 0
KVP1 252104Z 18005KT 17/17 A2999 RMK A01 T01720172  RH  100%=      5-min Rain = 0
KVP1 252105Z 18005KT 17/17 A2999 RMK A01 T01730173  RH  100%=      5-min Rain = 0
KVP1 252106Z 18007KT 17/17 A2999 RMK A01 T01730174  RH  100%=      5-min Rain = 0
KVP1 252107Z 19007KT 18/18 A2998 RMK A01 T01750175  RH  100%=      5-min Rain = 0
KVP1 252108Z 19008KT 18/18 A2998 RMK A01 T01760176  RH  100%=      5-min Rain = 0
KVP1 252109Z 19008KT 18/18 A2998 RMK A01 T01760176  RH  100%=      5-min Rain = 0
KVP1 252110Z 18007KT 18/18 A2998 RMK A01 T01760176  RH  100%=      5-min Rain = 0
KVP1 252111Z 17007KT 18/18 A2998 RMK A01 T01770177  RH  100%=      5-min Rain = 0
KVP1 252112Z 17008KT 18/18 A2998 RMK A01 T01800180  RH  100%=      5-min Rain = 0
KVP1 252113Z 17006KT 18/18 A2998 RMK A01 T01820182  RH  100%=      5-min Rain = 0
KVP1 252114Z 16008KT 18/18 A2999 RMK A01 T01840184  RH  100%=      5-min Rain = 0
KVP1 252115Z 17008KT 18/18 A2999 RMK A01 T01840182  RH  098%=      5-min Rain = 0
KVP1 252116Z 16007KT 19/18 A2999 RMK A01 T01850182  RH  098%=      5-min Rain = 0
KVP1 252117Z 16007KT 19/18 A2999 RMK A01 T01850180  RH  097%=      5-min Rain = 0
KVP1 252118Z 15006KT 19/18 A2999 RMK A01 T01850180  RH  097%=      5-min Rain = 0
KVP1 252119Z 15007KT 19/18 A2999 RMK A01 T01850179  RH  096%=      5-min Rain = 0
KVP1 252120Z 16007KT 19/18 A2999 RMK A01 T01850177  RH  095%=      5-min Rain = 0
KVP1 252121Z 16009KT 19/18 A2999 RMK A01 T01850176  RH  094%=      5-min Rain = 0
KVP1 252122Z 16009KT 18/17 A2999 RMK A01 T01840172  RH  093%=      5-min Rain = 0
KVP1 252123Z 16009KT 18/17 A2999 RMK A01 T01840172  RH  093%=      5-min Rain = 0
KVP1 252124Z 15008KT 18/17 A2999 RMK A01 T01840174  RH  094%=      5-min Rain = 0
KVP1 252125Z 15009KT 18/17 A2999 RMK A01 T01830174  RH  095%=      5-min Rain = 0
KVP1 252126Z 15008KT 18/17 A2999 RMK A01 T01820174  RH  095%=      5-min Rain = 0
KVP1 252127Z 16007KT 18/18 A2999 RMK A01 T01830176  RH  096%=      5-min Rain = 0
KVP1 252128Z 15008KT 18/18 A2998 RMK A01 T01820177  RH  097%=      5-min Rain = 0
KVP1 252129Z 15009KT 18/18 A2998 RMK A01 T01830178  RH  097%=      5-min Rain = 0.01
KVP1 252130Z 14008KT 18/18 A2998 RMK A01 T01820178  RH  097%=      5-min Rain = 0
KVP1 252131Z 13008KT 18/18 A2998 RMK A01 T01830179  RH  098%=      5-min Rain = 0
KVP1 252132Z 14009KT 18/18 A2997 RMK A01 T01830179  RH  098%=      5-min Rain = 0
KVP1 252133Z 13008KT 18/18 A2997 RMK A01 T01830179  RH  098%=      5-min Rain = 0
KVP1 252134Z 13008KT 18/18 A2996 RMK A01 T01820179  RH  098%=      5-min Rain = 0
KVP1 252135Z 13008KT 18/18 A2996 RMK A01 T01820180  RH  099%=      5-min Rain = 0
KVP1 252136Z 13008KT 18/18 A2996 RMK A01 T01830180  RH  099%=      5-min Rain = 0
KVP1 252137Z 13011KT 18/18 A2996 RMK A01 T01830181  RH  099%=      5-min Rain = 0
KVP1 252138Z 13011KT 18/18 A2996 RMK A01 T01840180  RH  098%=      5-min Rain = 0
KVP1 252139Z 13009KT 18/18 A2996 RMK A01 T01840180  RH  098%=      5-min Rain = 0
KVP1 252140Z 13009KT 18/18 A2996 RMK A01 T01840181  RH  098%=      5-min Rain = 0
KVP1 252141Z 13010KT 18/18 A2996 RMK A01 T01840181  RH  098%=      5-min Rain = 0
KVP1 252142Z 13008KT 18/18 A2996 RMK A01 T01840181  RH  098%=      5-min Rain = 0
KVP1 252143Z 13010KT 18/18 A2996 RMK A01 T01830181  RH  099%=      5-min Rain = 0
KVP1 252144Z 13011KT 18/18 A2996 RMK A01 T01830181  RH  098%=      5-min Rain = 0
KVP1 252145Z 13012KT 18/18 A2996 RMK A01 T01830180  RH  098%=      5-min Rain = 0
KVP1 252146Z 12010KT 18/18 A2996 RMK A01 T01830180  RH  098%=      5-min Rain = 0
KVP1 252147Z 12010KT 18/18 A2995 RMK A01 T01830180  RH  098%=      5-min Rain = 0
KVP1 252148Z 12010KT 18/18 A2995 RMK A01 T01830181  RH  098%=      5-min Rain = 0
KVP1 252149Z 12010KT 18/18 A2995 RMK A01 T01830181  RH  099%=      5-min Rain = 0
KVP1 252150Z 12011KT 18/18 A2994 RMK A01 T01830181  RH  099%=      5-min Rain = 0
KVP1 252151Z 12010KT 18/18 A2994 RMK A01 T01830181  RH  099%=      5-min Rain = 0
KVP1 252152Z 13009KT 18/18 A2994 RMK A01 T01830181  RH  099%=      5-min Rain = 0
KVP1 252153Z 15009KT 18/18 A2994 RMK A01 T01830181  RH  099%=      5-min Rain = 0
KVP1 252154Z 14010KT 18/18 A2995 RMK A01 T01830181  RH  099%=      5-min Rain = 0
KVP1 252155Z 14009KT 18/18 A2994 RMK A01 T01830179  RH  098%=      5-min Rain = 0
KVP1 252156Z 15010KT 18/18 A2994 RMK A01 T01840177  RH  096%=      5-min Rain = 0
KVP1 252157Z 16010KT 18/18 A2995 RMK A01 T01840175  RH  094%=      5-min Rain = 0
KVP1 252158Z 15011KT 19/17 A2995 RMK A01 T01850172  RH  092%=      5-min Rain = 0
KVP1 252159Z 15010KT 19/17 A2995 RMK A01 T01860171  RH  091%=      5-min Rain = 0
KVP1 252200Z 16010KT 19/17 A2995 RMK A01 T01860171  RH  091%=      5-min Rain = 0
KVP1 252201Z 15009KT 19/17 A2995 RMK A01 T01860170  RH  090%=      5-min Rain = 0
KVP1 252202Z 16010KT 19/17 A2996 RMK A01 T01870170  RH  090%=      5-min Rain = 0
KVP1 252203Z 16010KT 19/17 A2996 RMK A01 T01870169  RH  090%=      5-min Rain = 0
KVP1 252204Z 16010KT 19/17 A2996 RMK A01 T01870169  RH  089%=      5-min Rain = 0
KVP1 252205Z 16009KT 19/17 A2996 RMK A01 T01870170  RH  090%=      5-min Rain = 0
KVP1 252206Z 16010KT 19/17 A2996 RMK A01 T01870170  RH  090%=      5-min Rain = 0
KVP1 252207Z 16009KT 19/17 A2996 RMK A01 T01870171  RH  090%=      5-min Rain = 0
KVP1 252208Z 15010KT 19/17 A2995 RMK A01 T01860171  RH  091%=      5-min Rain = 0
KVP1 252209Z 15010KT 19/17 A2995 RMK A01 T01860170  RH  091%=      5-min Rain = 0.01
KVP1 252210Z 15009KT 19/17 A2995 RMK A01 T01860171  RH  091%=      5-min Rain = 0
KVP1 252211Z 16010KT 19/17 A2996 RMK A01 T01860172  RH  091%=      5-min Rain = 0
KVP1 252212Z 16010KT 19/17 A2996 RMK A01 T01860171  RH  091%=      5-min Rain = 0
KVP1 252213Z 15010KT 19/17 A2996 RMK A01 T01860171  RH  091%=      5-min Rain = 0
KVP1 252214Z 15010KT 19/17 A2996 RMK A01 T01850172  RH  092%=      5-min Rain = 0.01
KVP1 252215Z 16010KT 19/17 A2997 RMK A01 T01850172  RH  092%=      5-min Rain = 0
KVP1 252216Z 16010KT 19/17 A2997 RMK A01 T01850172  RH  092%=      5-min Rain = 0
KVP1 252217Z 16009KT 18/17 A2997 RMK A01 T01840171  RH  092%=      5-min Rain = 0
KVP1 252218Z 16009KT 18/17 A2997 RMK A01 T01840172  RH  093%=      5-min Rain = 0.01
KVP1 252219Z 17009KT 18/17 A2997 RMK A01 T01830173  RH  094%=      5-min Rain = 0
KVP1 252220Z 17009KT 18/17 A2997 RMK A01 T01830173  RH  094%=      5-min Rain = 0
KVP1 252221Z 18009KT 18/17 A2997 RMK A01 T01820173  RH  094%=      5-min Rain = 0
KVP1 252222Z 19008KT 18/17 A2998 RMK A01 T01820174  RH  095%=      5-min Rain = 0.01
KVP1 252223Z 20008KT 18/18 A2998 RMK A01 T01820175  RH  095%=      5-min Rain = 0
KVP1 252224Z 20007KT 18/18 A2997 RMK A01 T01820175  RH  096%=      5-min Rain = 0.01
KVP1 252225Z 20006KT 18/18 A2997 RMK A01 T01820176  RH  096%=      5-min Rain = 0.01
KVP1 252226Z 21007KT 18/18 A2997 RMK A01 T01820177  RH  097%=      5-min Rain = 0
KVP1 252227Z 21008KT 18/18 A2997 RMK A01 T01820177  RH  097%=      5-min Rain = 0.01
KVP1 252228Z 20009KT 18/18 A2998 RMK A01 T01820177  RH  097%=      5-min Rain = 0
KVP1 252229Z 19010KT 18/18 A2998 RMK A01 T01820177  RH  097%=      5-min Rain = 0.01
KVP1 252230Z 18012KT 18/18 A2999 RMK A01 T01820177  RH  097%=      5-min Rain = 0.02
KVP1 252231Z 17014KT 18/18 A2999 RMK A01 T01820177  RH  097%=      5-min Rain = 0.03
KVP1 252232Z 17016KT 18/18 A2999 RMK A01 T01820178  RH  098%=      5-min Rain = 0.03
KVP1 252233Z 17018KT 18/18 A2999 RMK A01 T01810179  RH  099%=      5-min Rain = 0.04
KVP1 252234Z 16020KT 18/18 A2999 RMK A01 T01810180  RH  099%=      5-min Rain = 0.05
KVP1 252235Z 15020KT 18/18 A2998 RMK A01 T01820182  RH  100%=      5-min Rain = 0.05
KVP1 252236Z 13022KT 18/18 A2997 RMK A01 T01820182  RH  100%=      5-min Rain = 0.04
KVP1 252237Z 13026KT 18/18 A2996 RMK A01 T01830183  RH  100%=      5-min Rain = 0.04
KVP1 252238Z 13027KT 18/18 A2997 RMK A01 T01840184  RH  100%=      5-min Rain = 0.04
KVP1 252239Z 13025KT 18/18 A2997 RMK A01 T01840184  RH  100%=      5-min Rain = 0.02
KVP1 252240Z 14025KT 19/19 A2998 RMK A01 T01850185  RH  100%=      5-min Rain = 0.03
KVP1 252241Z 16024G29KT 19/19 A2999 RMK A01 T01860186  RH  100%=      5-min Rain = 0.02
KVP1 252242Z 18029KT 19/19 A30 RMK A01 T01850185  RH  100%=      5-min Rain = 0.03
KVP1 252243Z 18028G33KT 18/17 A30 RMK A01 T01770174  RH  098%=      5-min Rain = 0.03
KVP1 252244Z 19031KT 17/17 A30 RMK A01 T01720166  RH  097%=      5-min Rain = 0.02
KVP1 252245Z 16024G31KT 17/16 A2998 RMK A01 T01680161  RH  096%=      5-min Rain = 0.01
KVP1 252246Z 16036G41KT 17/16 A2997 RMK A01 T01680162  RH  096%=      5-min Rain = 0.03
KVP1 252247Z 15016G25KT 17/15 A2998 RMK A01 T01700151  RH  089%=      5-min Rain = 0.04
KVP1 252248Z 14010G18KT 18/15 A2998 RMK A01 T01750147  RH  084%=      5-min Rain = 0.02
KVP1 252249Z 16017G24KT 18/14 A2998 RMK A01 T01770143  RH  081%=      5-min Rain = 0.03
KVP1 252250Z 13021KT 18/15 A2999 RMK A01 T01800145  RH  080%=      5-min Rain = 0.01
KVP1 252251Z 13021G27KT 18/16 A2998 RMK A01 T01790156  RH  087%=      5-min Rain = 0.01
KVP1 252252Z 12020KT 18/16 A2997 RMK A01 T01770158  RH  088%=      5-min Rain = 0
KVP1 252253Z 11021KT 18/16 A2996 RMK A01 T01760160  RH  090%=      5-min Rain = 0.01
KVP1 252254Z 11021KT 17/16 A2996 RMK A01 T01740158  RH  090%=      5-min Rain = 0.02
KVP1 252255Z 10021KT 17/16 A2995 RMK A01 T01730161  RH  093%=      5-min Rain = 0.02
KVP1 252256Z 11020KT 17/16 A2995 RMK A01 T01710162  RH  094%=      5-min Rain = 0.02
KVP1 252257Z 12024KT 17/16 A2995 RMK A01 T01710163  RH  095%=      5-min Rain = 0.01
KVP1 252258Z 12025KT 17/16 A2994 RMK A01 T01710160  RH  093%=      5-min Rain = 0
KVP1 252259Z 11024KT 17/16 A2994 RMK A01 T01730160  RH  092%=      5-min Rain = 0.01
KVP1 252300Z 12025KT 17/16 A2994 RMK A01 T01740161  RH  092%=      5-min Rain = 0
KVP1 252301Z 12021KT 18/16 A2994 RMK A01 T01750163  RH  092%=      5-min Rain = 0.01
KVP1 252302Z 14019KT 18/16 A2995 RMK A01 T01750164  RH  093%=      5-min Rain = 0
KVP1 252303Z 14020KT 18/15 A2995 RMK A01 T01750153  RH  087%=      5-min Rain = 0
KVP1 252304Z 14016KT 18/14 A2996 RMK A01 T01820139  RH  076%=      5-min Rain = 0
KVP1 252305Z 13014KT 19/14 A2995 RMK A01 T01880139  RH  073%=      5-min Rain = 0
KVP1 252306Z 13013G18KT 19/14 A2995 RMK A01 T01890144  RH  075%=      5-min Rain = 0
KVP1 252307Z 14013KT 19/15 A2995 RMK A01 T01890152  RH  079%=      5-min Rain = 0
KVP1 252308Z 14010KT 19/15 A2995 RMK A01 T01890152  RH  079%=      5-min Rain = 0
KVP1 252309Z 12007KT 19/15 A2995 RMK A01 T01890147  RH  076%=      5-min Rain = 0
KVP1 252310Z 14009G16KT 19/14 A2995 RMK A01 T01900143  RH  074%=      5-min Rain = 0
KVP1 252311Z 14006G11KT 19/15 A2994 RMK A01 T01940145  RH  073%=      5-min Rain = 0
KVP1 252312Z 14017KT 20/14 A2994 RMK A01 T01950142  RH  071%=      5-min Rain = 0
KVP1 252313Z 12013KT 20/14 A2994 RMK A01 T01970144  RH  071%=      5-min Rain = 0
KVP1 252314Z 12014KT 20/15 A2993 RMK A01 T01970146  RH  072%=      5-min Rain = 0
KVP1 252315Z 12012KT 20/15 A2994 RMK A01 T01970146  RH  072%=      5-min Rain = 0
KVP1 252316Z 12009KT 20/15 A2994 RMK A01 T01970148  RH  073%=      5-min Rain = 0
KVP1 252317Z 12007KT 20/15 A2994 RMK A01 T01960149  RH  074%=      5-min Rain = 0
KVP1 252318Z 12007KT 20/15 A2995 RMK A01 T01950151  RH  075%=      5-min Rain = 0
KVP1 252319Z 12009KT 19/15 A2996 RMK A01 T01940153  RH  078%=      5-min Rain = 0
KVP1 252320Z 13010KT 19/16 A2996 RMK A01 T01910156  RH  080%=      5-min Rain = 0
KVP1 252321Z 13008KT 19/16 A2997 RMK A01 T01890159  RH  083%=      5-min Rain = 0
KVP1 252322Z 12006KT 19/16 A2997 RMK A01 T01870158  RH  083%=      5-min Rain = 0
KVP1 252323Z 12006KT 19/16 A2997 RMK A01 T01860158  RH  084%=      5-min Rain = 0
KVP1 252324Z 12006KT 19/16 A2997 RMK A01 T01850160  RH  085%=      5-min Rain = 0
KVP1 252325Z 12006KT 18/16 A2997 RMK A01 T01840160  RH  086%=      5-min Rain = 0
KVP1 252326Z 11005KT 18/16 A2997 RMK A01 T01840161  RH  086%=      5-min Rain = 0
KVP1 252327Z 10003KT 19/16 A2997 RMK A01 T01850162  RH  087%=      5-min Rain = 0
KVP1 252328Z 10002KT 19/16 A2998 RMK A01 T01850163  RH  087%=      5-min Rain = 0
KVP1 252329Z 10002KT 19/16 A2998 RMK A01 T01850162  RH  087%=      5-min Rain = 0
KVP1 252330Z 36001KT 19/16 A2998 RMK A01 T01850163  RH  087%=      5-min Rain = 0
KVP1 252331Z 33004KT 19/16 A2999 RMK A01 T01850163  RH  087%=      5-min Rain = 0
KVP1 252332Z 34006KT 19/16 A2999 RMK A01 T01850162  RH  087%=      5-min Rain = 0
KVP1 252333Z 00005KT 19/16 A2999 RMK A01 T01850162  RH  086%=      5-min Rain = 0
KVP1 252334Z 00003KT 19/16 A2999 RMK A01 T01850162  RH  086%=      5-min Rain = 0
KVP1 252335Z 34003KT 19/16 A2999 RMK A01 T01860161  RH  085%=      5-min Rain = 0
KVP1 252336Z 35003KT 19/16 A30 RMK A01 T01860161  RH  085%=      5-min Rain = 0
KVP1 252337Z 35004KT 19/16 A30 RMK A01 T01880158  RH  083%=      5-min Rain = 0
KVP1 252338Z 35004KT 19/16 A30 RMK A01 T01900158  RH  082%=      5-min Rain = 0
KVP1 252339Z 01003KT 19/16 A30 RMK A01 T01920156  RH  080%=      5-min Rain = 0
KVP1 252340Z 34003KT 20/16 A3001 RMK A01 T01950156  RH  078%=      5-min Rain = 0
KVP1 252341Z 35003KT 20/16 A3001 RMK A01 T01970158  RH  078%=      5-min Rain = 0
KVP1 252342Z 35004KT 20/16 A3001 RMK A01 T01970160  RH  079%=      5-min Rain = 0
KVP1 252343Z 33007KT 20/16 A30 RMK A01 T01950162  RH  081%=      5-min Rain = 0
KVP1 252344Z 32008KT 19/17 A30 RMK A01 T01920165  RH  084%=      5-min Rain = 0
KVP1 252345Z 32008KT 19/16 A30 RMK A01 T01880164  RH  086%=      5-min Rain = 0
KVP1 252346Z 31007KT 19/16 A30 RMK A01 T01870164  RH  087%=      5-min Rain = 0
KVP1 252347Z 32005KT 19/17 A2999 RMK A01 T01850166  RH  088%=      5-min Rain = 0
KVP1 252348Z 31005KT 18/17 A2999 RMK A01 T01840166  RH  090%=      5-min Rain = 0
KVP1 252349Z 33002KT 18/17 A2999 RMK A01 T01830165  RH  089%=      5-min Rain = 0
KVP1 252350Z 36001KT 18/17 A2999 RMK A01 T01820165  RH  090%=      5-min Rain = 0
KVP1 252351Z 02001KT 18/17 A2999 RMK A01 T01830165  RH  089%=      5-min Rain = 0
KVP1 252352Z 35002KT 18/16 A2999 RMK A01 T01830163  RH  088%=      5-min Rain = 0
KVP1 252353Z 32002KT 18/16 A2999 RMK A01 T01840162  RH  087%=      5-min Rain = 0
KVP1 252354Z 33000KT 19/16 A30 RMK A01 T01850162  RH  086%=      5-min Rain = 0
KVP1 252355Z 13002KT 19/16 A30 RMK A01 T01860162  RH  086%=      5-min Rain = 0
KVP1 252356Z 14004KT 19/16 A3001 RMK A01 T01870164  RH  087%=      5-min Rain = 0
KVP1 252357Z 16006KT 19/17 A3001 RMK A01 T01870167  RH  088%=      5-min Rain = 0
KVP1 252358Z 17009KT 19/17 A3002 RMK A01 T01860168  RH  089%=      5-min Rain = 0.01
KVP1 252359Z 17012KT 19/17 A3003 RMK A01 T01850167  RH  089%=      5-min Rain = 0
KVP1 260000Z 17013KT 18/17 A3003 RMK A01 T01840168  RH  091%=      5-min Rain = 0
KVP1 260001Z 17009KT 18/17 A3002 RMK A01 T01820168  RH  091%=      5-min Rain = 0.01
KVP1 260002Z 18011KT 18/17 A3002 RMK A01 T01810169  RH  093%=      5-min Rain = 0.01
KVP1 260003Z 16011KT 18/17 A3002 RMK A01 T01790170  RH  094%=      5-min Rain = 0.01
KVP1 260004Z 18011KT 18/17 A3001 RMK A01 T01790170  RH  095%=      5-min Rain = 0.01
KVP1 260005Z 18009KT 18/17 A30 RMK A01 T01790171  RH  095%=      5-min Rain = 0
KVP1 260006Z 18009KT 18/17 A2999 RMK A01 T01800171  RH  094%=      5-min Rain = 0
KVP1 260007Z 17007KT 18/17 A2999 RMK A01 T01810171  RH  094%=      5-min Rain = 0.01
KVP1 260008Z 15006KT 18/17 A2998 RMK A01 T01820172  RH  094%=      5-min Rain = 0
KVP1 260009Z 16005KT 18/17 A2998 RMK A01 T01820172  RH  094%=      5-min Rain = 0.01
KVP1 260010Z 18005KT 18/17 A2998 RMK A01 T01820172  RH  094%=      5-min Rain = 0
KVP1 260011Z 18006KT 18/17 A2998 RMK A01 T01820172  RH  094%=      5-min Rain = 0
KVP1 260012Z 19005KT 18/17 A2998 RMK A01 T01830173  RH  094%=      5-min Rain = 0.01
KVP1 260013Z 21004KT 18/17 A2998 RMK A01 T01830174  RH  094%=      5-min Rain = 0
KVP1 260014Z 22003KT 18/17 A2997 RMK A01 T01830174  RH  095%=      5-min Rain = 0
KVP1 260015Z 23003KT 18/17 A2997 RMK A01 T01820174  RH  095%=      5-min Rain = 0
KVP1 260016Z 25004KT 18/17 A2997 RMK A01 T01820174  RH  095%=      5-min Rain = 0
KVP1 260017Z 27004KT 18/17 A2997 RMK A01 T01820174  RH  095%=      5-min Rain = 0
KVP1 260018Z 27004KT 18/18 A2996 RMK A01 T01810175  RH  096%=      5-min Rain = 0
KVP1 260019Z 28003KT 18/18 A2996 RMK A01 T01810175  RH  096%=      5-min Rain = 0
KVP1 260020Z 27005KT 18/18 A2996 RMK A01 T01810175  RH  097%=      5-min Rain = 0
KVP1 260021Z 27005KT 18/18 A2996 RMK A01 T01810175  RH  097%=      5-min Rain = 0
KVP1 260022Z 25004KT 18/18 A2996 RMK A01 T01800175  RH  097%=      5-min Rain = 0
KVP1 260023Z 25004KT 18/18 A2995 RMK A01 T01800175  RH  097%=      5-min Rain = 0
KVP1 260024Z 26002KT 18/18 A2994 RMK A01 T01800175  RH  097%=      5-min Rain = 0
KVP1 260025Z 26001KT 18/18 A2994 RMK A01 T01800175  RH  097%=      5-min Rain = 0
KVP1 260026Z 32001KT 18/18 A2993 RMK A01 T01800175  RH  097%=      5-min Rain = 0
KVP1 260027Z 32002KT 18/18 A2993 RMK A01 T01800175  RH  097%=      5-min Rain = 0
KVP1 260028Z 31002KT 18/18 A2994 RMK A01 T01800176  RH  097%=      5-min Rain = 0
KVP1 260029Z 30000KT 18/18 A2994 RMK A01 T01800176  RH  097%=      5-min Rain = 0
KVP1 260030Z 12002KT 18/18 A2994 RMK A01 T01800176  RH  098%=      5-min Rain = 0
KVP1 260031Z 12002KT 18/18 A2994 RMK A01 T01800177  RH  098%=      5-min Rain = 0
KVP1 260032Z 10001KT 18/18 A2995 RMK A01 T01800177  RH  098%=      5-min Rain = 0
KVP1 260033Z 00002KT 18/18 A2995 RMK A01 T01800178  RH  098%=      5-min Rain = 0
KVP1 260034Z 01002KT 18/18 A2995 RMK A01 T01810178  RH  099%=      5-min Rain = 0
KVP1 260035Z 05002KT 18/18 A2995 RMK A01 T01810179  RH  099%=      5-min Rain = 0
KVP1 260036Z 08004KT 18/18 A2995 RMK A01 T01820180  RH  099%=      5-min Rain = 0
KVP1 260037Z 09004KT 18/18 A2995 RMK A01 T01830182  RH  099%=      5-min Rain = 0
KVP1 260038Z 08004KT 18/18 A2995 RMK A01 T01840183  RH  099%=      5-min Rain = 0
KVP1 260039Z 08004KT 18/18 A2995 RMK A01 T01840183  RH  099%=      5-min Rain = 0
KVP1 260040Z 07004KT 19/18 A2995 RMK A01 T01850183  RH  099%=      5-min Rain = 0
KVP1 260041Z 10004KT 19/18 A2996 RMK A01 T01850183  RH  098%=      5-min Rain = 0
KVP1 260042Z 12007KT 19/18 A2996 RMK A01 T01870184  RH  098%=      5-min Rain = 0
KVP1 260043Z 13009KT 19/19 A2996 RMK A01 T01880186  RH  098%=      5-min Rain = 0
KVP1 260044Z 12010KT 19/19 A2996 RMK A01 T01890186  RH  098%=      5-min Rain = 0
KVP1 260045Z 12009KT 19/18 A2996 RMK A01 T01880184  RH  097%=      5-min Rain = 0
KVP1 260046Z 13008KT 19/18 A2997 RMK A01 T01880183  RH  096%=      5-min Rain = 0
KVP1 260047Z 13009KT 19/18 A2997 RMK A01 T01880182  RH  096%=      5-min Rain = 0
KVP1 260048Z 13009KT 19/18 A2997 RMK A01 T01880182  RH  096%=      5-min Rain = 0
KVP1 260049Z 14011KT 19/18 A2997 RMK A01 T01880181  RH  096%=      5-min Rain = 0
KVP1 260050Z 14011KT 19/18 A2997 RMK A01 T01880182  RH  096%=      5-min Rain = 0
KVP1 260051Z 13011KT 19/18 A2997 RMK A01 T01880181  RH  096%=      5-min Rain = 0
KVP1 260052Z 13014KT 19/18 A2997 RMK A01 T01880181  RH  096%=      5-min Rain = 0
KVP1 260053Z 12013KT 19/18 A2997 RMK A01 T01880180  RH  095%=      5-min Rain = 0
KVP1 260054Z 12013KT 19/18 A2997 RMK A01 T01880180  RH  095%=      5-min Rain = 0
KVP1 260055Z 11012KT 19/18 A2997 RMK A01 T01880179  RH  095%=      5-min Rain = 0
KVP1 260056Z 12012KT 19/18 A2997 RMK A01 T01870179  RH  095%=      5-min Rain = 0
KVP1 260057Z 12013KT 19/18 A2997 RMK A01 T01870179  RH  095%=      5-min Rain = 0
KVP1 260058Z 12012KT 19/18 A2997 RMK A01 T01860178  RH  095%=      5-min Rain = 0
KVP1 260059Z 12011KT 19/18 A2997 RMK A01 T01860177  RH  094%=      5-min Rain = 0
KVP1 260100Z 13008KT 19/18 A2997 RMK A01 T01870176  RH  094%=      5-min Rain = 0
KVP1 260101Z 13009KT 19/18 A2997 RMK A01 T01870176  RH  093%=      5-min Rain = 0
KVP1 260102Z 13010KT 19/18 A2997 RMK A01 T01880175  RH  092%=      5-min Rain = 0
KVP1 260103Z 14011KT 19/18 A2997 RMK A01 T01880175  RH  092%=      5-min Rain = 0
KVP1 260104Z 14010KT 19/18 A2997 RMK A01 T01890175  RH  091%=      5-min Rain = 0
KVP1 260105Z 13009KT 19/18 A2996 RMK A01 T01890176  RH  092%=      5-min Rain = 0
KVP1 260106Z 13010KT 19/18 A2996 RMK A01 T01890177  RH  093%=      5-min Rain = 0
KVP1 260107Z 14010KT 19/18 A2996 RMK A01 T01890176  RH  092%=      5-min Rain = 0
KVP1 260108Z 15009KT 19/18 A2997 RMK A01 T01890177  RH  092%=      5-min Rain = 0
KVP1 260109Z 15008KT 19/18 A2997 RMK A01 T01890177  RH  093%=      5-min Rain = 0
KVP1 260110Z 15009KT 19/18 A2997 RMK A01 T01890177  RH  093%=      5-min Rain = 0
KVP1 260111Z 15009KT 19/18 A2997 RMK A01 T01890177  RH  093%=      5-min Rain = 0
KVP1 260112Z 15010KT 19/18 A2997 RMK A01 T01890176  RH  092%=      5-min Rain = 0
KVP1 260113Z 15011KT 19/18 A2997 RMK A01 T01890176  RH  092%=      5-min Rain = 0
KVP1 260114Z 14009KT 19/18 A2997 RMK A01 T01890176  RH  092%=      5-min Rain = 0
KVP1 260115Z 14010KT 19/18 A2997 RMK A01 T01880176  RH  093%=      5-min Rain = 0
KVP1 260116Z 15010KT 19/18 A2997 RMK A01 T01870177  RH  093%=      5-min Rain = 0
KVP1 260117Z 15010KT 19/18 A2997 RMK A01 T01870177  RH  094%=      5-min Rain = 0
KVP1 260118Z 14009KT 19/18 A2997 RMK A01 T01860176  RH  094%=      5-min Rain = 0
KVP1 260119Z 14009KT 19/18 A2996 RMK A01 T01870176  RH  094%=      5-min Rain = 0
KVP1 260120Z 14009KT 19/18 A2997 RMK A01 T01860176  RH  094%=      5-min Rain = 0
KVP1 260121Z 14009KT 19/18 A2997 RMK A01 T01860177  RH  094%=      5-min Rain = 0
KVP1 260122Z 14009KT 19/18 A2997 RMK A01 T01860177  RH  095%=      5-min Rain = 0
KVP1 260123Z 14009KT 19/18 A2997 RMK A01 T01860177  RH  095%=      5-min Rain = 0
KVP1 260124Z 14010KT 19/18 A2997 RMK A01 T01850177  RH  095%=      5-min Rain = 0
KVP1 260125Z 13010KT 19/18 A2997 RMK A01 T01850176  RH  094%=      5-min Rain = 0
KVP1 260126Z 14011KT 19/17 A2997 RMK A01 T01850174  RH  094%=      5-min Rain = 0
KVP1 260127Z 13011KT 19/17 A2997 RMK A01 T01850172  RH  093%=      5-min Rain = 0
KVP1 260128Z 13011KT 18/17 A2997 RMK A01 T01840172  RH  092%=      5-min Rain = 0
KVP1 260129Z 13010KT 18/17 A2996 RMK A01 T01840171  RH  092%=      5-min Rain = 0
KVP1 260130Z 13011KT 18/17 A2996 RMK A01 T01830170  RH  092%=      5-min Rain = 0
KVP1 260131Z 13011KT 18/17 A2996 RMK A01 T01830170  RH  092%=      5-min Rain = 0
KVP1 260132Z 14010KT 18/17 A2996 RMK A01 T01820169  RH  092%=      5-min Rain = 0
KVP1 260133Z 14011KT 18/17 A2996 RMK A01 T01810169  RH  092%=      5-min Rain = 0
KVP1 260134Z 14010KT 18/17 A2996 RMK A01 T01810168  RH  092%=      5-min Rain = 0
KVP1 260135Z 14009KT 18/17 A2996 RMK A01 T01800168  RH  092%=      5-min Rain = 0
KVP1 260136Z 14009KT 18/17 A2996 RMK A01 T01800168  RH  093%=      5-min Rain = 0
KVP1 260137Z 14008KT 18/17 A2996 RMK A01 T01800167  RH  092%=      5-min Rain = 0
KVP1 260138Z 15009KT 18/17 A2996 RMK A01 T01790166  RH  092%=      5-min Rain = 0
KVP1 260139Z 15010KT 18/17 A2996 RMK A01 T01780165  RH  092%=      5-min Rain = 0
KVP1 260140Z 15010KT 18/16 A2996 RMK A01 T01780164  RH  092%=      5-min Rain = 0
KVP1 260141Z 15009KT 18/16 A2996 RMK A01 T01780163  RH  091%=      5-min Rain = 0
KVP1 260142Z 15009KT 18/16 A2996 RMK A01 T01770162  RH  091%=      5-min Rain = 0
KVP1 260143Z 16009KT 18/16 A2996 RMK A01 T01770161  RH  091%=      5-min Rain = 0
KVP1 260144Z 15010KT 18/16 A2996 RMK A01 T01760161  RH  091%=      5-min Rain = 0
KVP1 260145Z 15009KT 18/16 A2995 RMK A01 T01760159  RH  090%=      5-min Rain = 0
KVP1 260146Z 15009KT 18/16 A2995 RMK A01 T01760159  RH  090%=      5-min Rain = 0
KVP1 260147Z 16008KT 18/16 A2995 RMK A01 T01750158  RH  090%=      5-min Rain = 0
KVP1 260148Z 15008KT 18/16 A2995 RMK A01 T01750158  RH  090%=      5-min Rain = 0
KVP1 260149Z 16009KT 17/16 A2996 RMK A01 T01740158  RH  090%=      5-min Rain = 0
KVP1 260150Z 15008KT 17/16 A2995 RMK A01 T01730157  RH  090%=      5-min Rain = 0
KVP1 260151Z 15009KT 17/16 A2996 RMK A01 T01740157  RH  090%=      5-min Rain = 0
KVP1 260152Z 15008KT 17/16 A2996 RMK A01 T01730158  RH  090%=      5-min Rain = 0
KVP1 260153Z 16008KT 17/16 A2995 RMK A01 T01730158  RH  091%=      5-min Rain = 0
KVP1 260154Z 16007KT 17/16 A2995 RMK A01 T01720157  RH  091%=      5-min Rain = 0
KVP1 260155Z 15008KT 17/16 A2995 RMK A01 T01710157  RH  091%=      5-min Rain = 0
KVP1 260156Z 15008KT 17/16 A2995 RMK A01 T01710157  RH  092%=      5-min Rain = 0
KVP1 260157Z 15007KT 17/16 A2995 RMK A01 T01700157  RH  092%=      5-min Rain = 0
KVP1 260158Z 15007KT 17/16 A2995 RMK A01 T01700157  RH  092%=      5-min Rain = 0
KVP1 260159Z 15007KT 17/16 A2995 RMK A01 T01700157  RH  092%=      5-min Rain = 0
KVP1 260200Z 15007KT 17/16 A2995 RMK A01 T01700157  RH  092%=      5-min Rain = 0
KVP1 260201Z 15007KT 17/16 A2995 RMK A01 T01700157  RH  092%=      5-min Rain = 0
KVP1 260202Z 15007KT 17/16 A2995 RMK A01 T01690156  RH  092%=      5-min Rain = 0
KVP1 260203Z 15006KT 17/16 A2995 RMK A01 T01690156  RH  092%=      5-min Rain = 0
KVP1 260204Z 15006KT 17/16 A2995 RMK A01 T01690156  RH  092%=      5-min Rain = 0
KVP1 260205Z 15006KT 17/16 A2995 RMK A01 T01680156  RH  092%=      5-min Rain = 0
KVP1 260206Z 16006KT 17/16 A2995 RMK A01 T01680156  RH  093%=      5-min Rain = 0
KVP1 260207Z 16006KT 17/16 A2995 RMK A01 T01680156  RH  093%=      5-min Rain = 0
KVP1 260208Z 16006KT 17/16 A2995 RMK A01 T01670155  RH  093%=      5-min Rain = 0
KVP1 260209Z 16005KT 17/16 A2995 RMK A01 T01670155  RH  093%=      5-min Rain = 0
KVP1 260210Z 15006KT 17/16 A2995 RMK A01 T01660155  RH  093%=      5-min Rain = 0
KVP1 260211Z 15005KT 17/16 A2995 RMK A01 T01660155  RH  093%=      5-min Rain = 0
KVP1 260212Z 15005KT 17/15 A2995 RMK A01 T01660154  RH  093%=      5-min Rain = 0
KVP1 260213Z 15005KT 17/16 A2994 RMK A01 T01650155  RH  093%=      5-min Rain = 0
KVP1 260214Z 15005KT 17/16 A2994 RMK A01 T01650155  RH  094%=      5-min Rain = 0
KVP1 260215Z 15005KT 17/16 A2994 RMK A01 T01650155  RH  094%=      5-min Rain = 0
KVP1 260216Z 15006KT 16/16 A2994 RMK A01 T01640155  RH  094%=      5-min Rain = 0
KVP1 260217Z 15006KT 16/16 A2994 RMK A01 T01640155  RH  094%=      5-min Rain = 0
KVP1 260218Z 16006KT 16/15 A2994 RMK A01 T01630154  RH  094%=      5-min Rain = 0
KVP1 260219Z 16006KT 16/16 A2994 RMK A01 T01630155  RH  095%=      5-min Rain = 0
KVP1 260220Z 16006KT 16/16 A2994 RMK A01 T01630155  RH  095%=      5-min Rain = 0
KVP1 260221Z 16006KT 16/16 A2995 RMK A01 T01630155  RH  095%=      5-min Rain = 0
KVP1 260222Z 16006KT 16/15 A2995 RMK A01 T01630154  RH  095%=      5-min Rain = 0
KVP1 260223Z 16006KT 16/15 A2995 RMK A01 T01630154  RH  095%=      5-min Rain = 0
KVP1 260224Z 16006KT 16/15 A2995 RMK A01 T01630154  RH  094%=      5-min Rain = 0
KVP1 260225Z 16006KT 16/15 A2995 RMK A01 T01630154  RH  094%=      5-min Rain = 0
KVP1 260226Z 16006KT 16/15 A2994 RMK A01 T01630154  RH  094%=      5-min Rain = 0
KVP1 260227Z 16007KT 16/15 A2994 RMK A01 T01630154  RH  094%=      5-min Rain = 0
KVP1 260228Z 16007KT 16/15 A2994 RMK A01 T01630154  RH  094%=      5-min Rain = 0
KVP1 260229Z 16007KT 16/15 A2994 RMK A01 T01630154  RH  094%=      5-min Rain = 0
KVP1 260230Z 16007KT 16/15 A2994 RMK A01 T01640154  RH  094%=      5-min Rain = 0
KVP1 260231Z 16006KT 16/15 A2994 RMK A01 T01640154  RH  094%=      5-min Rain = 0
KVP1 260232Z 16007KT 16/15 A2994 RMK A01 T01640154  RH  094%=      5-min Rain = 0
KVP1 260233Z 16007KT 17/15 A2994 RMK A01 T01650154  RH  093%=      5-min Rain = 0
KVP1 260234Z 16007KT 17/15 A2994 RMK A01 T01650154  RH  093%=      5-min Rain = 0
KVP1 260235Z 16008KT 17/15 A2994 RMK A01 T01650154  RH  093%=      5-min Rain = 0
KVP1 260236Z 16008KT 17/16 A2995 RMK A01 T01650155  RH  094%=      5-min Rain = 0
KVP1 260237Z 16008KT 17/16 A2995 RMK A01 T01660155  RH  093%=      5-min Rain = 0
KVP1 260238Z 16008KT 17/16 A2994 RMK A01 T01660155  RH  093%=      5-min Rain = 0
KVP1 260239Z 16008KT 17/16 A2994 RMK A01 T01660155  RH  093%=      5-min Rain = 0
KVP1 260240Z 16009KT 17/16 A2994 RMK A01 T01670155  RH  092%=      5-min Rain = 0
KVP1 260241Z 17009KT 17/16 A2994 RMK A01 T01680155  RH  092%=      5-min Rain = 0
KVP1 260242Z 17009KT 17/16 A2994 RMK A01 T01690155  RH  092%=      5-min Rain = 0
KVP1 260243Z 16008KT 17/16 A2994 RMK A01 T01690155  RH  091%=      5-min Rain = 0
KVP1 260244Z 16009KT 17/16 A2994 RMK A01 T01700156  RH  091%=      5-min Rain = 0
KVP1 260245Z 16008KT 17/16 A2994 RMK A01 T01700155  RH  091%=      5-min Rain = 0
KVP1 260246Z 16009KT 17/16 A2994 RMK A01 T01700156  RH  091%=      5-min Rain = 0
KVP1 260247Z 16009KT 17/16 A2994 RMK A01 T01700156  RH  092%=      5-min Rain = 0
KVP1 260248Z 16010KT 17/16 A2994 RMK A01 T01700156  RH  092%=      5-min Rain = 0
KVP1 260249Z 16009KT 17/16 A2994 RMK A01 T01700156  RH  092%=      5-min Rain = 0
KVP1 260250Z 16010KT 17/16 A2994 RMK A01 T01700156  RH  091%=      5-min Rain = 0
KVP1 260251Z 16010KT 17/16 A2994 RMK A01 T01700156  RH  091%=      5-min Rain = 0
KVP1 260252Z 16011KT 17/16 A2994 RMK A01 T01700156  RH  091%=      5-min Rain = 0
KVP1 260253Z 16010KT 17/16 A2994 RMK A01 T01710156  RH  091%=      5-min Rain = 0
KVP1 260254Z 16011KT 17/16 A2994 RMK A01 T01720156  RH  091%=      5-min Rain = 0
KVP1 260255Z 16011KT 17/16 A2994 RMK A01 T01730157  RH  090%=      5-min Rain = 0
KVP1 260256Z 16010KT 17/16 A2994 RMK A01 T01730157  RH  090%=      5-min Rain = 0
KVP1 260257Z 16011KT 17/16 A2994 RMK A01 T01740158  RH  090%=      5-min Rain = 0
KVP1 260258Z 16010KT 17/16 A2994 RMK A01 T01740157  RH  090%=      5-min Rain = 0
KVP1 260259Z 16010KT 17/16 A2994 RMK A01 T01740157  RH  090%=      5-min Rain = 0
KVP1 260300Z 16010KT 17/16 A2994 RMK A01 T01740158  RH  090%=      5-min Rain = 0
KVP1 260301Z 16010KT 17/16 A2994 RMK A01 T01740158  RH  090%=      5-min Rain = 0
KVP1 260302Z 16011KT 17/16 A2994 RMK A01 T01740158  RH  090%=      5-min Rain = 0
KVP1 260303Z 16010KT 17/16 A2994 RMK A01 T01740159  RH  091%=      5-min Rain = 0
KVP1 260304Z 16010KT 18/16 A2994 RMK A01 T01750160  RH  091%=      5-min Rain = 0
KVP1 260305Z 16011KT 18/16 A2994 RMK A01 T01760162  RH  091%=      5-min Rain = 0
KVP1 260306Z 16011KT 18/16 A2994 RMK A01 T01760163  RH  092%=      5-min Rain = 0
KVP1 260307Z 16011KT 18/16 A2994 RMK A01 T01760164  RH  092%=      5-min Rain = 0
KVP1 260308Z 16010KT 18/17 A2994 RMK A01 T01770165  RH  092%=      5-min Rain = 0
KVP1 260309Z 16011KT 18/17 A2994 RMK A01 T01780166  RH  093%=      5-min Rain = 0
KVP1 260310Z 17011KT 18/17 A2994 RMK A01 T01780167  RH  093%=      5-min Rain = 0
KVP1 260311Z 17010KT 18/17 A2994 RMK A01 T01790168  RH  093%=      5-min Rain = 0
KVP1 260312Z 16011KT 18/17 A2994 RMK A01 T01800169  RH  093%=      5-min Rain = 0
KVP1 260313Z 16011KT 18/17 A2994 RMK A01 T01810170  RH  093%=      5-min Rain = 0
KVP1 260314Z 16011KT 18/17 A2994 RMK A01 T01820171  RH  093%=      5-min Rain = 0
KVP1 260315Z 16012KT 18/17 A2994 RMK A01 T01830171  RH  093%=      5-min Rain = 0
KVP1 260316Z 16011KT 18/17 A2994 RMK A01 T01840172  RH  093%=      5-min Rain = 0
KVP1 260317Z 17012KT 18/17 A2994 RMK A01 T01840173  RH  093%=      5-min Rain = 0
KVP1 260318Z 17012KT 19/17 A2994 RMK A01 T01850173  RH  093%=      5-min Rain = 0
KVP1 260319Z 17012KT 19/17 A2994 RMK A01 T01860174  RH  093%=      5-min Rain = 0
KVP1 260320Z 17012KT 19/18 A2994 RMK A01 T01870175  RH  093%=      5-min Rain = 0
KVP1 260321Z 17014KT 19/18 A2994 RMK A01 T01880176  RH  093%=      5-min Rain = 0
KVP1 260322Z 17013KT 19/18 A2994 RMK A01 T01880176  RH  093%=      5-min Rain = 0
KVP1 260323Z 17014KT 19/18 A2994 RMK A01 T01890176  RH  092%=      5-min Rain = 0
KVP1 260324Z 16016KT 19/18 A2994 RMK A01 T01890177  RH  092%=      5-min Rain = 0
KVP1 260325Z 16012KT 19/18 A2995 RMK A01 T01900177  RH  092%=      5-min Rain = 0
KVP1 260326Z 17014KT 19/18 A2995 RMK A01 T01910177  RH  092%=      5-min Rain = 0
KVP1 260327Z 17014KT 19/18 A2995 RMK A01 T01910177  RH  092%=      5-min Rain = 0
KVP1 260328Z 17014KT 19/18 A2995 RMK A01 T01910177  RH  092%=      5-min Rain = 0
KVP1 260329Z 17014KT 19/18 A2995 RMK A01 T01910177  RH  092%=      5-min Rain = 0
KVP1 260330Z 17015KT 19/18 A2995 RMK A01 T01910177  RH  092%=      5-min Rain = 0
KVP1 260331Z 17014KT 19/18 A2995 RMK A01 T01910177  RH  092%=      5-min Rain = 0
KVP1 260332Z 17013KT 19/18 A2995 RMK A01 T01900177  RH  092%=      5-min Rain = 0
KVP1 260333Z 16014KT 19/18 A2995 RMK A01 T01900177  RH  093%=      5-min Rain = 0
KVP1 260334Z 17014KT 19/18 A2995 RMK A01 T01900178  RH  093%=      5-min Rain = 0
KVP1 260335Z 17013KT 19/18 A2995 RMK A01 T01900178  RH  093%=      5-min Rain = 0
KVP1 260336Z 17014KT 19/18 A2995 RMK A01 T01900178  RH  093%=      5-min Rain = 0
KVP1 260337Z 17015KT 19/18 A2995 RMK A01 T01900178  RH  093%=      5-min Rain = 0
KVP1 260338Z 17014KT 19/18 A2995 RMK A01 T01910179  RH  092%=      5-min Rain = 0
KVP1 260339Z 17014KT 19/18 A2995 RMK A01 T01910178  RH  092%=      5-min Rain = 0
KVP1 260340Z 17013KT 19/18 A2995 RMK A01 T01920179  RH  092%=      5-min Rain = 0
KVP1 260341Z 17013KT 19/18 A2995 RMK A01 T01920179  RH  092%=      5-min Rain = 0
KVP1 260342Z 17013KT 19/18 A2995 RMK A01 T01910179  RH  092%=      5-min Rain = 0
KVP1 260343Z 17014KT 19/18 A2995 RMK A01 T01920179  RH  093%=      5-min Rain = 0
KVP1 260344Z 17013KT 19/18 A2995 RMK A01 T01920179  RH  092%=      5-min Rain = 0
KVP1 260345Z 17012KT 19/18 A2995 RMK A01 T01920179  RH  092%=      5-min Rain = 0
KVP1 260346Z 17011KT 19/18 A2995 RMK A01 T01920179  RH  092%=      5-min Rain = 0
KVP1 260347Z 17011KT 19/18 A2995 RMK A01 T01920180  RH  093%=      5-min Rain = 0
KVP1 260348Z 17014KT 19/18 A2995 RMK A01 T01920180  RH  093%=      5-min Rain = 0
KVP1 260349Z 17013KT 19/18 A2995 RMK A01 T01930181  RH  093%=      5-min Rain = 0
KVP1 260350Z 17013KT 19/18 A2995 RMK A01 T01940181  RH  092%=      5-min Rain = 0
KVP1 260351Z 17013KT 19/18 A2995 RMK A01 T01940181  RH  092%=      5-min Rain = 0
KVP1 260352Z 17012KT 19/18 A2995 RMK A01 T01940181  RH  092%=      5-min Rain = 0
KVP1 260353Z 17011KT 19/18 A2995 RMK A01 T01940180  RH  092%=      5-min Rain = 0
KVP1 260354Z 17013KT 19/18 A2996 RMK A01 T01940181  RH  092%=      5-min Rain = 0
KVP1 260355Z 17013KT 19/18 A2996 RMK A01 T01930181  RH  093%=      5-min Rain = 0
KVP1 260356Z 17012KT 19/18 A2996 RMK A01 T01940181  RH  092%=      5-min Rain = 0
KVP1 260357Z 18012KT 19/18 A2996 RMK A01 T01940181  RH  092%=      5-min Rain = 0
KVP1 260358Z 17013KT 19/18 A2996 RMK A01 T01940181  RH  092%=      5-min Rain = 0
KVP1 260359Z 17012KT 19/18 A2996 RMK A01 T01940182  RH  092%=      5-min Rain = 0
KVP1 260400Z 17011KT 19/18 A2996 RMK A01 T01940182  RH  092%=      5-min Rain = 0
KVP1 260401Z 17012KT 19/18 A2996 RMK A01 T01940182  RH  093%=      5-min Rain = 0
KVP1 260402Z 17012KT 19/18 A2996 RMK A01 T01940182  RH  093%=      5-min Rain = 0
KVP1 260403Z 17011KT 19/18 A2996 RMK A01 T01930181  RH  093%=      5-min Rain = 0
KVP1 260404Z 17011KT 19/18 A2996 RMK A01 T01930182  RH  093%=      5-min Rain = 0
KVP1 260405Z 17011KT 19/18 A2996 RMK A01 T01930182  RH  093%=      5-min Rain = 0
KVP1 260406Z 17012KT 19/18 A2996 RMK A01 T01920182  RH  094%=      5-min Rain = 0
KVP1 260407Z 17012KT 19/18 A2996 RMK A01 T01920182  RH  094%=      5-min Rain = 0
KVP1 260408Z 17013KT 19/18 A2996 RMK A01 T01920182  RH  094%=      5-min Rain = 0
KVP1 260409Z 17011KT 19/18 A2996 RMK A01 T01930183  RH  094%=      5-min Rain = 0
KVP1 260410Z 17012KT 19/18 A2996 RMK A01 T01940183  RH  094%=      5-min Rain = 0
KVP1 260411Z 17013KT 19/18 A2996 RMK A01 T01940183  RH  094%=      5-min Rain = 0
KVP1 260412Z 17011KT 20/18 A2996 RMK A01 T01950183  RH  093%=      5-min Rain = 0
KVP1 260413Z 17011KT 20/18 A2996 RMK A01 T01950183  RH  093%=      5-min Rain = 0
KVP1 260414Z 17011KT 20/18 A2996 RMK A01 T01950183  RH  093%=      5-min Rain = 0
KVP1 260415Z 17011KT 20/18 A2996 RMK A01 T01950184  RH  093%=      5-min Rain = 0
KVP1 260416Z 17012KT 20/19 A2996 RMK A01 T01960185  RH  093%=      5-min Rain = 0
KVP1 260417Z 17012KT 20/19 A2996 RMK A01 T01960185  RH  093%=      5-min Rain = 0
KVP1 260418Z 17012KT 20/19 A2996 RMK A01 T01970185  RH  093%=      5-min Rain = 0
KVP1 260419Z 17011KT 20/19 A2996 RMK A01 T01980185  RH  093%=      5-min Rain = 0
KVP1 260420Z 17011KT 20/19 A2996 RMK A01 T01980185  RH  093%=      5-min Rain = 0
KVP1 260421Z 17011KT 20/19 A2996 RMK A01 T01980186  RH  093%=      5-min Rain = 0
KVP1 260422Z 17012KT 20/19 A2996 RMK A01 T01980186  RH  093%=      5-min Rain = 0
KVP1 260423Z 17011KT 20/19 A2996 RMK A01 T01980186  RH  093%=      5-min Rain = 0
KVP1 260424Z 17012KT 20/19 A2996 RMK A01 T01980186  RH  093%=      5-min Rain = 0
KVP1 260425Z 17012KT 20/19 A2996 RMK A01 T01980186  RH  093%=      5-min Rain = 0
KVP1 260426Z 17011KT 20/19 A2996 RMK A01 T01990187  RH  093%=      5-min Rain = 0
KVP1 260427Z 17012G17KT 20/19 A2996 RMK A01 T01990187  RH  092%=      5-min Rain = 0
KVP1 260428Z 16013KT 20/19 A2996 RMK A01 T02000187  RH  092%=      5-min Rain = 0
KVP1 260429Z 16012KT 20/19 A2996 RMK A01 T02010187  RH  092%=      5-min Rain = 0
KVP1 260430Z 17013KT 20/19 A2996 RMK A01 T02020187  RH  091%=      5-min Rain = 0
KVP1 260431Z 17012KT 20/19 A2996 RMK A01 T02020187  RH  091%=      5-min Rain = 0
KVP1 260432Z 17012KT 20/19 A2996 RMK A01 T02020188  RH  092%=      5-min Rain = 0
KVP1 260433Z 17013KT 20/19 A2996 RMK A01 T02020188  RH  092%=      5-min Rain = 0
KVP1 260434Z 17012KT 20/19 A2996 RMK A01 T02020188  RH  092%=      5-min Rain = 0
KVP1 260435Z 17012KT 20/19 A2996 RMK A01 T02010187  RH  092%=      5-min Rain = 0
KVP1 260436Z 17012KT 20/19 A2996 RMK A01 T02010187  RH  092%=      5-min Rain = 0
KVP1 260437Z 17012KT 20/19 A2996 RMK A01 T02000187  RH  092%=      5-min Rain = 0
KVP1 260438Z 17012KT 20/19 A2996 RMK A01 T02000188  RH  092%=      5-min Rain = 0
KVP1 260439Z 17013KT 20/19 A2996 RMK A01 T02000188  RH  092%=      5-min Rain = 0
KVP1 260440Z 17012KT 20/19 A2996 RMK A01 T02000187  RH  092%=      5-min Rain = 0
KVP1 260441Z 16012KT 20/19 A2996 RMK A01 T02000188  RH  092%=      5-min Rain = 0
KVP1 260442Z 16013KT 20/19 A2996 RMK A01 T02000188  RH  092%=      5-min Rain = 0
KVP1 260443Z 16013KT 20/19 A2996 RMK A01 T02000188  RH  092%=      5-min Rain = 0
KVP1 260444Z 16012KT 20/19 A2996 RMK A01 T02000187  RH  093%=      5-min Rain = 0
KVP1 260445Z 16013KT 20/19 A2996 RMK A01 T02000188  RH  093%=      5-min Rain = 0
KVP1 260446Z 16013KT 20/19 A2996 RMK A01 T02000188  RH  093%=      5-min Rain = 0
KVP1 260447Z 16013KT 20/19 A2996 RMK A01 T02000187  RH  093%=      5-min Rain = 0
KVP1 260448Z 17013KT 20/19 A2996 RMK A01 T02000187  RH  093%=      5-min Rain = 0
KVP1 260449Z 17013KT 20/19 A2996 RMK A01 T02000187  RH  093%=      5-min Rain = 0
KVP1 260450Z 17012KT 20/19 A2996 RMK A01 T02000187  RH  092%=      5-min Rain = 0
KVP1 260451Z 17012KT 20/19 A2996 RMK A01 T02000187  RH  092%=      5-min Rain = 0
KVP1 260452Z 17011KT 20/19 A2997 RMK A01 T02000187  RH  092%=      5-min Rain = 0
KVP1 260453Z 18011KT 20/19 A2997 RMK A01 T02000188  RH  092%=      5-min Rain = 0
KVP1 260454Z 17011KT 20/19 A2997 RMK A01 T02000187  RH  093%=      5-min Rain = 0
KVP1 260455Z 18011KT 20/19 A2997 RMK A01 T01990187  RH  093%=      5-min Rain = 0
KVP1 260456Z 18009KT 20/19 A2997 RMK A01 T01990187  RH  093%=      5-min Rain = 0
KVP1 260457Z 17010KT 20/19 A2997 RMK A01 T01980187  RH  093%=      5-min Rain = 0
KVP1 260458Z 17010KT 20/19 A2997 RMK A01 T01980187  RH  093%=      5-min Rain = 0
KVP1 260459Z 17010KT 20/19 A2997 RMK A01 T01980187  RH  093%=      5-min Rain = 0

Page generated in 0.1504 seconds.